eFukt.com – SITERIP

1007 crazy eFukt videos! EFUKT is the best compilation of Fail and Fun moments in PORN on the NET. Adult humor for adults, Makers of Lulz. Shocking Humor, Porn bloopers, Porn Fails, Cam Whores, Amateur Porn and more.

Siterip Size: 15.6 GB
Number Of Videos: 1007


Download All Previews:
eFukt scrlists1.rar – 129.3 MB
eFukt scrlists2.rar – 120.9 MB
 
View All Screens:
All eFukt Screens
 
Download All Videos:
eFukt_00033_The_Dangers_of_DP_2005-12-20.mp4 – 1.1 MB
eFukt_00174_Clit_Piercing_2006-03-29.mp4 – 3.4 MB
eFukt_00196_The_Love_Plug_2006-04-14.mp4 – 728 KB
eFukt_00276_The_Creampie_2008-10-13.mp4 – 16.1 MB
eFukt_01605_Coat_Hanger_Abortion_2006-11-19.mp4 – 2.7 MB
eFukt_01612_Man_Eating_Vagina_2006-11-26.mp4 – 2.0 MB
eFukt_01638_Biggest_Pussy_Ever_2008-07-06.mp4 – 63.5 MB
eFukt_01643_Japanese_Cow_Gut_Porn_2006-12-27.mp4 – 5.6 MB
eFukt_01644_Fear_Of_Semen_2006-12-28.mp4 – 3.1 MB
eFukt_01645_Assisted_Entry_2006-12-29.mp4 – 2.1 MB
eFukt_01648__birth_For_Dummies_2007-01-02.mp4 – 3.8 MB
eFukt_01649_Do_the_Dew_2007-01-02.mp4 – 4.2 MB
eFukt_01670_His_Penis_Is_Bigger_Than_Yours_2009-06-30.mp4 – 94.4 MB
eFukt_01673_Obey_Thy_Husband_2007-01-29.mp4 – 5.0 MB
eFukt_01674_Horny_Little_Smurfs_2007-02-01.mp4 – 4.9 MB
eFukt_01688_Pornstars_Say_The_Darndest_Things_2009-04-04.mp4 – 32.8 MB
eFukt_01689_Dangerous_Sex_Toy_2007-02-16.mp4 – 813 KB
eFukt_01698_Massive_Creampie_2007-02-28.mp4 – 6.9 MB
eFukt_01709_Riley_Mason_Nearly_Crushes_Dude_s_Nuts_2007-03-11.mp4 – 3.2 MB
eFukt_01714_The_Dangers_of_DP_2007-03-17.mp4 – 5.0 MB
eFukt_01715_Asian_Attempting_Anal_2007-03-16.mp4 – 3.7 MB
eFukt_01716_Semen_Makes_Her_Gag_2007-03-18.mp4 – 5.0 MB
eFukt_01719_Drunk_White_Slut_2007-03-24.mp4 – 6.4 MB
eFukt_01727_College_Girl_Attacked_2007-04-01.mp4 – 6.4 MB
eFukt_01736_Retarded__Horny_2007-04-10.mp4 – 6.7 MB
eFukt_01739_Live_Sex_Show_2007-04-13.mp4 – 8.4 MB
eFukt_01745_Crazy_Exhibition__Folsom_Street_Fair_2007-04-19.mp4 – 26.5 MB
eFukt_01751_The_Elastic_Pussy_2007-04-26.mp4 – 6.9 MB
eFukt_01755_Foot_Long_Weiner_2007-04-30.mp4 – 7.8 MB
eFukt_01757_German_Sex_Festival_2007-05-02.mp4 – 9.0 MB
eFukt_01762_Is_This_Shit_Real_2007-05-05.mp4 – 8.6 MB
eFukt_01766_Real_Life_Swingers_2007-05-08.mp4 – 3.0 MB
eFukt_01767_Deadly_Bukkake_2007-05-09.mp4 – 4.4 MB
eFukt_01769_Anal_Sex_Gone_Wrong_2007-05-12.mp4 – 5.8 MB
eFukt_01778_Homeless_Blowjob_2007-05-21.mp4 – 5.3 MB
eFukt_01784_Sex_With_An_African_Native_2007-05-27.mp4 – 6.2 MB
eFukt_01786_The_24_Incher_2007-05-29.mp4 – 4.5 MB
eFukt_01787_Huge_Water_Bottle_Insertion_2007-05-30.mp4 – 2.2 MB
eFukt_01791_E.T._Alien_Sex_1_2007-06-03.mp4 – 6.4 MB
eFukt_01793_E.T._Alien_Sex_2_2007-06-04.mp4 – 6.4 MB
eFukt_01805_Passed_Out_Facial_2007-06-15.mp4 – 6.1 MB
eFukt_01807_Slut_Flashing_Her_Nasty_Ass_-_CLASSIC_2007-06-17.mp4 – 4.6 MB
eFukt_01808_Pervert_Spying_On_2_Drunks_2007-06-18.mp4 – 2.4 MB
eFukt_01810_Hired_To_Fuck_A_Wife_2007-06-19.mp4 – 6.0 MB
eFukt_01819_Anal_Art_2007-06-27.mp4 – 5.3 MB
eFukt_01822_Painful_Anal_Insertion_2007-07-01.mp4 – 3.7 MB
eFukt_01823_Pussy_Fingering_During_Flight_2007-07-02.mp4 – 2.2 MB
eFukt_01839_Pussy_Juice_Prank_2007-07-18.mp4 – 12.5 MB
eFukt_01841_Family_Fuck_1_2007-07-19.mp4 – 4.2 MB
eFukt_01844_Pornstar_Nearly_Impales_Herself_2008-12-17.mp4 – 20.9 MB
eFukt_01846_Wife_Encouraged_To_Cheat_2007-07-24.mp4 – 3.7 MB
eFukt_01848_Emotional_Orgasm_2007-07-26.mp4 – 2.1 MB
eFukt_01849_Crazy_Strip_Club_Sex_2007-07-27.mp4 – 8.1 MB
eFukt_01852_Painful_Pussy_Waxing_2007-07-30.mp4 – 4.0 MB
eFukt_01853_Family_Fuck_2_2007-07-31.mp4 – 4.0 MB
eFukt_01860_Sister_Loses_Her_Virginity_2007-08-07.mp4 – 5.1 MB
eFukt_01864_Oops_My_Asshole_Fell_Out_2009-03-14.mp4 – 1.5 MB
eFukt_01867_I_Want_To_Fuck_Her_Ass_Next_2008-08-19.mp4 – 52.4 MB
eFukt_01871_Anal_Attempt_On_Drunken_Wife_2007-08-19.mp4 – 2.7 MB
eFukt_01874_Goth_Orgy_2_2007-08-22.mp4 – 5.8 MB
eFukt_01878_Go_Fuck_Yourself_2007-08-25.mp4 – 3.8 MB
eFukt_01881_Mom_Caught_Masturbating_2007-09-29.mp4 – 1.1 MB
eFukt_01882_Spasmodic_Orgasmus_2007-08-30.mp4 – 6.0 MB
eFukt_01884_He_Has_A_Prety_Cool_GF_2007-09-01.mp4 – 5.0 MB
eFukt_01885_Diseased_Pussy_2007-09-02.mp4 – 3.5 MB
eFukt_01886_Queen_Of_Loose_Vagina_2007-09-03.mp4 – 5.8 MB
eFukt_01887_Cop_Groped_By_Naked_Chick_2007-09-04.mp4 – 5.5 MB
eFukt_01888_She_Hates_Deep_Penetration_2009-03-16.mp4 – 42.2 MB
eFukt_01889_First_Time_Brazillian_Anal_2007-09-06.mp4 – 1.4 MB
eFukt_01890_Buried__Throat_Fucked_2007-09-07.mp4 – 4.0 MB
eFukt_01892_Stripped_Naked_On_TV_2007-09-09.mp4 – 5.8 MB
eFukt_01894_Motherfucker_2007-09-11.mp4 – 4.2 MB
eFukt_01895_Loose_Pussy_Girl_Gets_Anal_2007-09-12.mp4 – 4.9 MB
eFukt_01899_Pussy_Balloon_2_2007-09-17.mp4 – 1023 KB
eFukt_01900_Smack_My_Bitch_Up_2007-09-18.mp4 – 1.5 MB
eFukt_01908_Stinky_Pussy_Makes_Him_Puke_2007-09-26.mp4 – 2.5 MB
eFukt_01909_extrme_Public_Sex_2007-09-27.mp4 – 4.8 MB
eFukt_01911_Cumshot_Crossfire_2007-09-29.mp4 – 624 KB
eFukt_01916_Assisted_Entry_2_2007-10-05.mp4 – 7.0 MB
eFukt_01917_Assisted_Entry_3_2007-10-06.mp4 – 2.6 MB
eFukt_01919_First_Time_Anal_2008-07-28.mp4 – 55.6 MB
eFukt_01921_She_Nearly_Dies_While_Cumming_2007-10-09.mp4 – 655 KB
eFukt_01924_Anal_Art_2_2007-10-12.mp4 – 1.6 MB
eFukt_01929_Sex_Near_A_Deadly_Lion_2007-10-18.mp4 – 6.5 MB
eFukt_01930_Blowjob_Gameshow_2007-10-19.mp4 – 8.2 MB
eFukt_01932_Fucking_While_Driving_2007-10-21.mp4 – 4.8 MB
eFukt_01937_She_Doesnt_Wanna_Fuck_2007-10-26.mp4 – 5.5 MB
eFukt_01938_Emotional_Orgasm_3_2007-10-27.mp4 – 1.4 MB
eFukt_01939_Southern_Slut_Loves_Butt_Sex_2007-10-29.mp4 – 2.9 MB
eFukt_01940_Molested_By_Black_Strippers_2007-10-30.mp4 – 8.4 MB
eFukt_01952_Octocock_2007-11-13.mp4 – 2.7 MB
eFukt_01953_Pervert_Hides_In_A_Bathroom_2007-11-14.mp4 – 4.9 MB
eFukt_01958_Mongloid_Gets_Some_Pussy_2007-11-20.mp4 – 7.5 MB
eFukt_01963_Pink_Panther_Does_Anal_2007-11-26.mp4 – 5.7 MB
eFukt_01964_Passed_Out_Wife_Gets_Anal_2007-11-27.mp4 – 2.0 MB
eFukt_01966_Screaming_Butt_Fuck_2007-11-29.mp4 – 3.5 MB
eFukt_01970_Loosening_Up_The_Wife_2007-12-04.mp4 – 3.7 MB
eFukt_01975_Intense_Orgasm_2007-12-09.mp4 – 1.2 MB
eFukt_01976_Squirt_On_Me_2007-12-10.mp4 – 2.0 MB
eFukt_01979_Assisted_Entry_4_2007-12-13.mp4 – 3.7 MB
eFukt_01982_No_It_Hurts_2007-12-16.mp4 – 438 KB
eFukt_01993_Vagina_Weight_Lifting_2_2007-12-26.mp4 – 5.3 MB
eFukt_01994_Minute_Man_2007-12-27.mp4 – 1.3 MB
eFukt_01999_Stinky_Cock_Makes_Her_Puke_2008-01-01.mp4 – 1.1 MB
eFukt_02002_Pornstar_Cries_Her_Eyes_Out_2008-01-04.mp4 – 5.0 MB
eFukt_02010_Dont_Film_Me_Fucking_2008-01-12.mp4 – 3.8 MB
eFukt_02012_8_Ball_Corner_Pocket_2008-01-13.mp4 – 268 KB
eFukt_02013_Watchin_Mom_Flash_Her_Tits_2008-01-15.mp4 – 1.7 MB
eFukt_02014_Dont_Fuck_When_Drunk_2008-01-16.mp4 – 2.8 MB
eFukt_02015_Keep_Eating_It_2008-01-17.mp4 – 2.8 MB
eFukt_02018_Senior_Citizen_Attempts_Rough_Sex__2008-10-12.mp4 – 12.7 MB
eFukt_02020_Cumshot_Chaser_2008-01-23.mp4 – 1.3 MB
eFukt_02023_Hurry_Up_It_Hurts_2008-01-26.mp4 – 2.9 MB
eFukt_02025_Elephant_Sex_Rampage_2008-01-28.mp4 – 2.6 MB
eFukt_02027_Naked_White_Crackwhore_2008-01-30.mp4 – 4.5 MB
eFukt_02028_Oops_Wrong_Hole_2008-01-31.mp4 – 1.1 MB
eFukt_02029_Molested_By_The_Crowd_2008-01-31.mp4 – 2.9 MB
eFukt_02030_Amputee_Sextape_2008-02-02.mp4 – 5.3 MB
eFukt_02032_That_Looks_Infected_2008-02-03.mp4 – 1.5 MB
eFukt_02033_Molested_By_Black_Strippers_2_2008-02-05.mp4 – 7.0 MB
eFukt_02034_STFU_AND_FUCK_2008-02-06.mp4 – 5.8 MB
eFukt_02035_Legless_Fuck_2008-02-08.mp4 – 362 KB
eFukt_02037_Public_pising_Gone_Wrong_2008-02-15.mp4 – 3.9 MB
eFukt_02038_She_Looks_Really_Bored_2008-02-15.mp4 – 4.2 MB
eFukt_02039_Tree_Fuck_LOL_2008-02-16.mp4 – 2.2 MB
eFukt_02041_Oh_My_God_2008-02-20.mp4 – 4.0 MB
eFukt_02045_Stripper_Attacked_By_Granny_2008-02-24.mp4 – 1.1 MB
eFukt_02046_Weird_Way_To_Clean_The_Pussy_2008-02-25.mp4 – 1.1 MB
eFukt_02047_Spring_Break_Slut_Gets_Angry_2008-02-26.mp4 – 6.8 MB
eFukt_02051_Orgasm_Interrupted_By_Phone_Call_2010-02-28.mp4 – 4.8 MB
eFukt_02052_Record_Breaking_Dildo_Fuck_2008-02-29.mp4 – 3.0 MB
eFukt_02053_The_Conesquences_Of_Being_A_Slut_2008-03-02.mp4 – 479 KB
eFukt_02054_Mom_Interrupts_Fuck_Session_2008-03-03.mp4 – 3.0 MB
eFukt_02056_Girl_Gives_Birth_To_14_Inch_Dildo_2008-03-04.mp4 – 274 KB
eFukt_02058_32_Ounces_Of_Pussy_2010-03-26.mp4 – 7.9 MB
eFukt_02059_Insecure_Slut_Tries_Anal_2008-03-06.mp4 – 7.1 MB
eFukt_02060_Strip_Searched_By_Secuity_Guard_2008-03-07.mp4 – 2.4 MB
eFukt_02061_Fuck_The_Shit_Out_Of_Me_2009-05-30.mp4 – 9.0 MB
eFukt_02062_Horny_Couple_Couldnt_Wait_2008-03-10.mp4 – 3.2 MB
eFukt_02063_Grandma_Hasn_t_Fucked_In_15_Years_2009-04-09.mp4 – 5.7 MB
eFukt_02065_Cameraman_Films_Couple_Fucking_2008-03-14.mp4 – 1.2 MB
eFukt_02073_Hot_Chick_Born_With_2_Vaginas_2008-03-21.mp4 – 1.1 MB
eFukt_02074_BOOM_Your_Ass_Is_Busted_2008-12-12.mp4 – 16.4 MB
eFukt_02076_Creamy_Vagina_2008-03-24.mp4 – 7.4 MB
eFukt_02081_Impaled_By_Giant_Dildo_2008-03-27.mp4 – 2.7 MB
eFukt_02082_Girl_Gets_Publicly_Jizzed_On_2009-01-15.mp4 – 3.9 MB
eFukt_02085_You_Beautiful_Bitch_2008-03-30.mp4 – 4.0 MB
eFukt_02086_Your_Vagina_Is_Leaking_2008-03-31.mp4 – 1.1 MB
eFukt_02089_Drunk_Slut_Gets_Pwned_2008-04-03.mp4 – 158 KB
eFukt_02090_Anal_Intruder_2008-04-04.mp4 – 817 KB
eFukt_02091_Her_Load_Is_Bigger_Than_Mine_2008-04-05.mp4 – 1.3 MB
eFukt_02093_German_Porn_Is_Hilariously_Fucked_Up_2008-04-07.mp4 – 37.8 MB
eFukt_02095_Making_Porno_Is_Fun_2008-04-09.mp4 – 6.3 MB
eFukt_02097_Overdose_Of_Sex_2008-04-11.mp4 – 6.7 MB
eFukt_02101_Goth_Girl_Gets_Pierced_2008-04-15.mp4 – 8.6 MB
eFukt_02102_The_Troubles_Of_Making_Porn_2008-04-16.mp4 – 5.5 MB
eFukt_02103_Girls_Should_Never_Go_To_This_Club_2008-04-17.mp4 – 2.4 MB
eFukt_02105_How_To_Make_A_Girl_Cum_2008-04-19.mp4 – 22.1 MB
eFukt_02107_Orgasm_Morphs_Woman_Into_Beast_2008-04-22.mp4 – 1.6 MB
eFukt_02109_She_Loves_Big_Black_Cocks_2008-04-24.mp4 – 17.8 MB
eFukt_02111_Bro_Your_Dick_Is_Broken_2008-04-27.mp4 – 1.4 MB
eFukt_02118_The_Result_Of_A_Real_Orgasm_2010-04-12.mp4 – 9.6 MB
eFukt_02120_Free_Blowjobs_At_Rap_Concert_2008-05-02.mp4 – 14.8 MB
eFukt_02121_22_Year_Old_Loses_His_Virginity_2008-05-03.mp4 – 15.9 MB
eFukt_02122_It_Wont_Fit_2008-05-04.mp4 – 10.1 MB
eFukt_02123_Porn_Slut_Is_Fed_Up_2008-05-05.mp4 – 1.9 MB
eFukt_02124_How_To_Eat_Pussy_2008-05-06.mp4 – 11.8 MB
eFukt_02125_Hotdog_Down_A_Hallway_2008-05-08.mp4 – 11.1 MB
eFukt_02128_Sex_With_A_Cannibal_2008-05-12.mp4 – 25.8 MB
eFukt_02129_Kicked_While_Masturbating_2008-05-13.mp4 – 2.4 MB
eFukt_02130_Heart_Attack_Orgasm_2008-05-15.mp4 – 5.4 MB
eFukt_02132_Light_Bulb_Pussy_2008-05-17.mp4 – 1.4 MB
eFukt_02133_It_Wont_Go_Any_Deeper_2008-05-19.mp4 – 5.7 MB
eFukt_02135_He_Cums_In_5_Seconds_Flat_2008-05-20.mp4 – 996 KB
eFukt_02137_brutl_Injury_While_Making_Love_2008-05-22.mp4 – 2.7 MB
eFukt_02143_Not_In_My_Pooper_2008-05-27.mp4 – 19.7 MB
eFukt_02144_Unwanted_Threesome_2008-05-29.mp4 – 12.3 MB
eFukt_02150_Extraterrestrial_Orgy_2008-06-04.mp4 – 19.1 MB
eFukt_02151_Kung_Fu_Slut_2008-06-05.mp4 – 8.4 MB
eFukt_02152_How_To_Become_A_Pornstar_2008-06-06.mp4 – 20.3 MB
eFukt_02153_Spank_That_Pussy_2008-06-08.mp4 – 1.5 MB
eFukt_02154_Attack_Of_The_2_Incher_2010-04-07.mp4 – 6.9 MB
eFukt_02156_The_Most_Immature_Pornstar_Ever_2008-06-11.mp4 – 13.8 MB
eFukt_02158_Pathetic_Guy_Begs_Wife_For_Sex_2008-06-14.mp4 – 6.1 MB
eFukt_02159_One_Pump_Chump_2008-06-14.mp4 – 1.3 MB
eFukt_02162_Attack_Of_The_Horny_Lifeguard_2008-06-18.mp4 – 9.1 MB
eFukt_02163_Drunken_Sex_Gone_Wrong_2008-06-19.mp4 – 5.2 MB
eFukt_02165_Hey_Watch_Me_Fuck_This_Slut_2008-06-22.mp4 – 18.3 MB
eFukt_02166_Goth_Orgy_2008-06-23.mp4 – 37.3 MB
eFukt_02168_Assholes_Harass_Ugly_Woman_2008-06-24.mp4 – 10.5 MB
eFukt_02171_She_Cant_Have_Sex_2008-06-26.mp4 – 16.8 MB
eFukt_02172_Bad_Babysitter_2008-06-27.mp4 – 5.8 MB
eFukt_02175_Hookers_Arent_Very_Political_2008-06-29.mp4 – 10.1 MB
eFukt_02180_The_Price_Of_Sleeping_Over_2008-07-03.mp4 – 5.9 MB
eFukt_02182_Drunk_Chick_Passes_Out_2008-07-04.mp4 – 5.0 MB
eFukt_02184_You_Suck_At_Fucking_My_Wife_2008-07-04.mp4 – 15.0 MB
eFukt_02185_Take_It_Easy_On_Her_Ass_2008-11-18.mp4 – 8.6 MB
eFukt_02186_Worlds_Most_Painful_Dildo_2008-07-08.mp4 – 1.7 MB
eFukt_02190_Bosnian_Slut_Fucks_In_A_Bar_2008-07-11.mp4 – 39.6 MB
eFukt_02191_Sorry_Wrong_Hole_2008-07-12.mp4 – 4.3 MB
eFukt_02192_She_Finds_The_Hidden_Camera_2008-07-13.mp4 – 1.1 MB
eFukt_02193_Mean_Sluts_Ridicule_Noob_2008-07-13.mp4 – 10.3 MB
eFukt_02194_eFukt_s_Biggest_Fan_2008-07-15.mp4 – 2.9 MB
eFukt_02196_He_Can_Make_A_Girl_Cum_2008-07-16.mp4 – 1.5 MB
eFukt_02198_Pornstar_Attacks_Male_Performer_2008-07-18.mp4 – 2.8 MB
eFukt_02201_Caught_Cheating_By_Angry_Husband_2008-07-20.mp4 – 1.7 MB
eFukt_02202_Hooker_Refuses_To_Get_Off_Her_Phone_2008-07-21.mp4 – 4.9 MB
eFukt_02203_She_Cant_Feel_His_Small_Dick_2008-07-21.mp4 – 68.0 MB
eFukt_02209_The_Biggest_Vagina_In_porn_2008-07-26.mp4 – 11.4 MB
eFukt_02210_Ouch_Her_Pussy_Hurts_2008-07-27.mp4 – 2.9 MB
eFukt_02211_Fucking_In_An_Internet_Cafe_2008-07-29.mp4 – 3.2 MB
eFukt_02212_pised_Off_Crackwhore_2008-07-30.mp4 – 9.3 MB
eFukt_02215_A_Good_Reason_Not_To_Do_Anal_2008-08-01.mp4 – 8.7 MB
eFukt_02217_Bitch_You_Got_A_Yeast_Infection_2008-08-04.mp4 – 7.1 MB
eFukt_02219_Worlds_Biggest_Cock_2008-08-05.mp4 – 17.0 MB
eFukt_02221_Newbie_Ruins_A_Porno_Shoot_2008-08-07.mp4 – 9.0 MB
eFukt_02226_Fucked_3_Feet_Deep_2008-08-14.mp4 – 1.8 MB
eFukt_02227_They_LOL_At_His_1_Inch_Penis_2008-08-15.mp4 – 10.6 MB
eFukt_02228_Pornstar_Gets_A_New_Vagina_2008-08-17.mp4 – 24.9 MB
eFukt_02230_Pornstar_Ruins_Her_Boob_Job_2008-08-19.mp4 – 1.7 MB
eFukt_02231_But_Youre_My_Brother_Lolz_2008-08-21.mp4 – 38.4 MB
eFukt_02234_Psycho_Orgasm_2008-08-23.mp4 – 7.2 MB
eFukt_02236_Big_Dick_Syndrome_2008-08-26.mp4 – 3.4 MB
eFukt_02237_Oh_Noes_The_Condom_Broke_2008-08-27.mp4 – 13.2 MB
eFukt_02238_She_Cums_Nine_Times_2008-08-28.mp4 – 9.7 MB
eFukt_02240_Bruno_Stop_Sniffing_Her_Pussy_2008-08-29.mp4 – 3.5 MB
eFukt_02245_Shes_Gonna_Get_Vagina_Cancer_2008-09-03.mp4 – 2.7 MB
eFukt_02247_Two_Feet_Of_Pain_2008-09-04.mp4 – 9.1 MB
eFukt_02248_Make_Sure_My_Pussy_Works_2008-09-05.mp4 – 41.5 MB
eFukt_02249_Gangbanged_On_Reality_TV_2008-09-06.mp4 – 11.8 MB
eFukt_02253_Long_Like_The_Neck_Of_An_Ostrich_2008-09-08.mp4 – 4.5 MB
eFukt_02255_Dying_Orgasm_2008-09-10.mp4 – 7.8 MB
eFukt_02256_Oops_She_Forgot_To_Lock_The_Door_2008-09-10.mp4 – 1.2 MB
eFukt_02259_Youre_Doing_It_Wrong_2008-09-15.mp4 – 4.0 MB
eFukt_02260_Search_Her_Pussy_For_Drugs_2008-09-17.mp4 – 9.6 MB
eFukt_02261_Drunken_Slut_Has_Hilarious_Disaster_2008-09-18.mp4 – 22.5 MB
eFukt_02264_Black_Cock_Causes_Bodily_Damage_2008-09-20.mp4 – 11.8 MB
eFukt_02268_Nudist_Has_A_Vaginal_Problem_2008-09-24.mp4 – 2.7 MB
eFukt_02269_Chef_Boyardee_Jizzes_Upon_Contact_2008-09-25.mp4 – 2.1 MB
eFukt_02271_Psycho_Slut_Spasms_Out_Of_Control_2008-09-27.mp4 – 11.8 MB
eFukt_02272_He_Can_Suck_His_Own_Dick_2008-09-28.mp4 – 13.2 MB
eFukt_02274_Too_Drunk_To_Masturbate_2008-09-29.mp4 – 4.2 MB
eFukt_02275_Her_Pussy_Needs_Stitches_2008-09-30.mp4 – 40.9 MB
eFukt_02277_Ashley_Blue_s_Shocking_First_Porno_2008-10-02.mp4 – 3.8 MB
eFukt_02279_I_Wanna_Be_A_Pornstar_2008-10-04.mp4 – 57.5 MB
eFukt_02282_Good_Porn_Ruined_By_Shitty_Music_2008-10-06.mp4 – 7.8 MB
eFukt_02283_This_Bitch_Is_Naked_2008-10-07.mp4 – 7.2 MB
eFukt_02285_Butthole_Damaged_After_Anal_Sex_2008-10-09.mp4 – 19.1 MB
eFukt_02287_No_Bitch_I_Aint_Eating_Your_Pussy_2008-10-11.mp4 – 3.2 MB
eFukt_02288_Indian_Girl_Almost_Quits_Anal_Scene_2008-10-13.mp4 – 2.4 MB
eFukt_02289_Intentionally_Caught_Jacking_Off_2008-10-14.mp4 – 2.6 MB
eFukt_02293_Go_Away_Bro_I_m_Masturbating_2008-10-19.mp4 – 6.0 MB
eFukt_02294_Eat_Your_Own_Pussy_2008-10-20.mp4 – 10.7 MB
eFukt_02295_Get_The_Fuck_Away_From_My_Tits_2008-10-21.mp4 – 1.3 MB
eFukt_02296_Turkish_Painful_Anal_2008-10-22.mp4 – 21.9 MB
eFukt_02298_Fattest_Pussy_Ever_2008-10-24.mp4 – 2.5 MB
eFukt_02300_You_Fucked_My_Pussy_Up_2008-10-26.mp4 – 6.3 MB
eFukt_02308_How_To_Fuck_Like_A_King_2008-11-02.mp4 – 6.2 MB
eFukt_02309_Cleaning_Has_Never_Been_More_Fun_2008-11-03.mp4 – 9.4 MB
eFukt_02313_His_Dick_Wasn_t_Big_Enough_2008-11-07.mp4 – 4.4 MB
eFukt_02314_The_Bilingual_Whore_2008-11-08.mp4 – 15.2 MB
eFukt_02316_Quite_Possibly_the_Worst_Stripper_Ever_2008-11-10.mp4 – 9.0 MB
eFukt_02324_Death_By_Vaginal_Cockroach_2008-11-19.mp4 – 16.9 MB
eFukt_02327_Maniac_Attacks_2_Lesbian_Sisters_2008-11-22.mp4 – 18.1 MB
eFukt_02328_Stop_Trying_To_Fuck_Me_2008-11-23.mp4 – 4.1 MB
eFukt_02329_Coworker_Caught_Jacking_Off_2008-11-23.mp4 – 1.5 MB
eFukt_02334_The_Effects_Of_Interracial_Sex_2008-11-27.mp4 – 7.5 MB
eFukt_02336_Never_Do_Anal_With_This_Girl_2008-11-30.mp4 – 7.2 MB
eFukt_02337_The_Inner_Demon_2008-12-01.mp4 – 2.1 MB
eFukt_02339_1_Guy_1_Cup_2008-12-03.mp4 – 20.1 MB
eFukt_02340_Pornstar_Cant_Stop_Orgasming_2008-12-05.mp4 – 12.7 MB
eFukt_02341_The_Orgasm_Of_Death_2008-12-06.mp4 – 10.3 MB
eFukt_02342_Groped_By_50_Different_Men_2008-12-08.mp4 – 19.0 MB
eFukt_02343_No_I_Will_Not_Fuck_You_2008-12-09.mp4 – 5.1 MB
eFukt_02344_Amputee_Porn_Gone_Bad_2008-12-10.mp4 – 57.1 MB
eFukt_02346_He_s_Not_Exactly_Pornstar_Material_2008-12-13.mp4 – 5.1 MB
eFukt_02347_LOL_I_Made_You_Gag_2008-12-14.mp4 – 2.8 MB
eFukt_02348_Stuff_You_Shouldn_t_Put_In_Your_Ass_2008-12-15.mp4 – 2.7 MB
eFukt_02350_The_Indestructible_Vagina_2008-12-17.mp4 – 33.3 MB
eFukt_02353_Wait_She_Just_Sucked_Your_Dick…_2008-12-21.mp4 – 7.3 MB
eFukt_02355_The_Dumbest_Sex_Device_Ever_Built_2008-12-28.mp4 – 7.1 MB
eFukt_02358_Oops_My_Pussy_Farted_2008-12-29.mp4 – 1.3 MB
eFukt_02363_Make_Momma_Proud_2009-01-05.mp4 – 3.7 MB
eFukt_02366_Hurray_I_lost_My_Virginity_2009-01-09.mp4 – 2.1 MB
eFukt_02367_Reverse_Anal_2009-01-09.mp4 – 7.1 MB
eFukt_02372_Sexually_Harrassed_In_Public_2009-01-13.mp4 – 15.1 MB
eFukt_02377_Vaginal_Orgasm_Via_Anal_Sex_2009-01-14.mp4 – 6.6 MB
eFukt_02378_Your_Cock_Will_Never_Be_That_Big_2009-01-16.mp4 – 1.3 MB
eFukt_02380_Pencil_Dick_2009-01-20.mp4 – 1.8 MB
eFukt_02382_Threesome_Sabotage_2009-01-21.mp4 – 5.0 MB
eFukt_02383_I_Lost_My_Cellphone_In_Your_Vagina_2009-01-22.mp4 – 19.7 MB
eFukt_02384_Queefing_Beauty_2009-01-25.mp4 – 9.9 MB
eFukt_02387_1_Guy_1_Basketball_2009-01-26.mp4 – 699 KB
eFukt_02390_Teacher__Student_Sextape_2009-01-31.mp4 – 17.2 MB
eFukt_02391_Meatiest_Pussy_Of_All_Time_2009-02-01.mp4 – 6.2 MB
eFukt_02392_Pornstar_Grosses_Herself_Out_2009-02-01.mp4 – 628 KB
eFukt_02395_Ouch_My_Cock_2009-02-04.mp4 – 4.4 MB
eFukt_02397_I_Wouldn_t_Shake_Her_Hand_2009-02-09.mp4 – 2.0 MB
eFukt_02399_Let_Yo_Dick_Swang_2009-02-11.mp4 – 2.4 MB
eFukt_02400_Show_Your_Tits_Or_Die_2009-02-12.mp4 – 14.0 MB
eFukt_02407_Cleanup_On_Orifice_Number_1_2009-02-21.mp4 – 2.0 MB
eFukt_02411_Butthole_Obliteration_2009-02-25.mp4 – 26.5 MB
eFukt_02414_LOL_I_Caught_You_2009-02-28.mp4 – 1.4 MB
eFukt_02416_Soccer_Mom_2009-03-02.mp4 – 7.3 MB
eFukt_02417_Strip_Searched_At_McDonalds_2009-03-03.mp4 – 14.6 MB
eFukt_02421_Guess_What_She_Ate_For_Lunch_2009-03-08.mp4 – 1.1 MB
eFukt_02422_Prisoners_Of_Whore_2009-03-10.mp4 – 19.2 MB
eFukt_02436_A_Vagina_Within_A_Vagina_2009-03-24.mp4 – 7.1 MB
eFukt_02438_Stump_Grinder_2009-03-29.mp4 – 2.3 MB
eFukt_02440_Oink_Oink_Suck_My_Dick_2009-03-30.mp4 – 22.8 MB
eFukt_02443_Her_Dad_Has_A_Big_Cock_2009-04-05.mp4 – 2.6 MB
eFukt_02446_Ouch_It_Hurts_2009-04-11.mp4 – 4.1 MB
eFukt_02448_Help_My_Boobs_Are_Too_Big_2009-04-14.mp4 – 28.5 MB
eFukt_02449_Bitch_That_Aint_No_Pussy_2009-04-15.mp4 – 7.0 MB
eFukt_02450_Sexual_Predator_On_The_Bus_2009-04-17.mp4 – 11.3 MB
eFukt_02451_My_Bitch_Is_Kinky_2009-04-17.mp4 – 7.1 MB
eFukt_02453_When_Did_You_Go_Poop_Last_2009-04-20.mp4 – 17.6 MB
eFukt_02457_Why_You_Motherfucker_2009-04-23.mp4 – 27.4 MB
eFukt_02460_Vocal_Vagina_2009-04-28.mp4 – 4.2 MB
eFukt_02461_Racist_Porn_From_The_70_s_2009-05-01.mp4 – 29.7 MB
eFukt_20455_The_Girl_Who_Cant_Stop_Orgasming_2009-05-04.mp4 – 25.0 MB
eFukt_20457_Zoophile_Recruitment_Video_2009-05-07.mp4 – 24.4 MB
eFukt_20458_Don_t_Cum_On_Me_Motherfucker_2009-05-08.mp4 – 1.6 MB
eFukt_20461_Stop_You_re_Destroying_My_Vagina_2009-05-12.mp4 – 2.8 MB
eFukt_20462_Orgasm_Renders_Wife_Unconscious_2009-05-13.mp4 – 8.0 MB
eFukt_20463_Never_Call_His_Dick_Small_2009-05-15.mp4 – 1.9 MB
eFukt_20465_Pornstar_Refuses_To_Do_ATM_2009-05-16.mp4 – 6.4 MB
eFukt_20466_The_Most_Obnoxious_Bitch_In_Porn_2009-05-18.mp4 – 7.1 MB
eFukt_20469_When_Senior_Citizens_Attack_2009-05-22.mp4 – 28.2 MB
eFukt_20472_Gone_In_60_Seconds_2009-05-25.mp4 – 3.0 MB
eFukt_20474_All_Girls_Love_Assholes_2009-05-28.mp4 – 19.4 MB
eFukt_20479_Gigantic_Genitalia_2009-06-04.mp4 – 20.5 MB
eFukt_20481_Not_Your_Typical_Pornstar_2009-06-08.mp4 – 6.8 MB
eFukt_20487_1_Girl_Vs._100_Horny_Men_2009-06-13.mp4 – 23.1 MB
eFukt_20493_Midget_Quits_Anal_Scene_2009-06-22.mp4 – 11.6 MB
eFukt_20501_extrme_Anal_Maintenance_2009-07-01.mp4 – 17.5 MB
eFukt_20503_A_Unique_Friendship_2009-07-02.mp4 – 15.1 MB
eFukt_20504_A_Little_Too_Curious_2009-07-06.mp4 – 19.8 MB
eFukt_20506_Shotgun_Blast_To_The_Vajayjay_2009-07-07.mp4 – 14.3 MB
eFukt_20507_Gone_With_The_Wind_2009-07-08.mp4 – 5.1 MB
eFukt_20508_Is_This_Your_Son_2009-07-09.mp4 – 3.3 MB
eFukt_20509_Orgasm_At_The_Gym_2009-07-10.mp4 – 10.1 MB
eFukt_20510_Sex_Ed_For_Dummies_2009-07-11.mp4 – 65.5 MB
eFukt_20511_Life_Support_Porn_2009-07-12.mp4 – 13.3 MB
eFukt_20512_Big_Penises_Cause_Big_Problems_2009-07-15.mp4 – 10.5 MB
eFukt_20516_Blowjob_Fail_2009-07-21.mp4 – 2.1 MB
eFukt_20519_The_Sex_Life_Of_A_Dwarf_2009-07-25.mp4 – 22.0 MB
eFukt_20521_Chuck_The_Pussy_Slayer_2009-07-28.mp4 – 17.1 MB
eFukt_20523_Hello_I_m_Masturbating_To_You_2009-07-30.mp4 – 10.3 MB
eFukt_20524_Anal_Accident_Of_The_Worst_Kind_2009-07-31.mp4 – 17.6 MB
eFukt_20526_Charity_Makes_His_Dick_Hard_2009-08-01.mp4 – 2.7 MB
eFukt_20528_Husband_Forced_To_Suck_Cock_2009-08-03.mp4 – 25.7 MB
eFukt_20529_Making_Porno_Is_Serious_Business_2009-08-04.mp4 – 13.3 MB
eFukt_20533_Gangbanged_By_251_Men_For_Nothing_2009-08-09.mp4 – 47.7 MB
eFukt_20537_The_Sex_Offender_Strikes_Back_2009-08-12.mp4 – 11.8 MB
eFukt_20539_America_s_Next_Top_Pornstar_2009-08-16.mp4 – 9.1 MB
eFukt_20540_Pornstar_Hates_Semen_2009-08-17.mp4 – 8.4 MB
eFukt_20541_Condom_Fail_2009-08-18.mp4 – 6.6 MB
eFukt_20543_Pornstar_Quits_Over_Farting_Incident_2009-08-19.mp4 – 13.7 MB
eFukt_20544_Pornstar_Meltdown_2009-08-21.mp4 – 3.4 MB
eFukt_20547_Get_Naked_Or_Die_2009-08-24.mp4 – 7.0 MB
eFukt_20548_The_Super_Soaker_2009-08-26.mp4 – 11.5 MB
eFukt_20551_Macho_Man_Cries_From_Anal_2009-08-29.mp4 – 16.7 MB
eFukt_20552_The_Hilarious_Misadventures_Of_Drunk_Girl_2009-09-01.mp4 – 28.4 MB
eFukt_20553_Orgasm_Ruined_By_Momma_2009-09-02.mp4 – 4.4 MB
eFukt_20557_Anal_With_Constipated_Girlfriend_2009-09-09.mp4 – 7.0 MB
eFukt_20558_Peeping_Tom_Fail_2009-09-10.mp4 – 2.4 MB
eFukt_20560_Sharing_Is_Caring_2009-09-14.mp4 – 5.8 MB
eFukt_20561_Erotic_Tattoo_Fail_2009-09-15.mp4 – 6.7 MB
eFukt_20562_Molested_At_Lunch_Time_2009-09-16.mp4 – 30.2 MB
eFukt_20564_Salad_Tossing_101_2009-09-17.mp4 – 15.3 MB
eFukt_20565_Titty_Destruction_2009-09-21.mp4 – 18.8 MB
eFukt_20566_Healthy_Alternatives_To_Anal_Sex_2009-09-22.mp4 – 14.8 MB
eFukt_20567_Spying_On_Mr._2_Incher_2009-09-24.mp4 – 8.5 MB
eFukt_20568_Cumshot_Fail_2009-09-26.mp4 – 1.6 MB
eFukt_20571_Cunt_Head_2009-09-30.mp4 – 18.2 MB
eFukt_20572_The_Elevator_2009-09-30.mp4 – 1.7 MB
eFukt_20573_LOL_I_Ejaculated_On_You_2009-10-04.mp4 – 3.9 MB
eFukt_20575_The_Most_Miserable_Pornstar_Ever_2009-10-07.mp4 – 4.3 MB
eFukt_20576_Quit_Fapping__GTFO_2009-10-09.mp4 – 43.1 MB
eFukt_20577_The_Legally_Retarded_Pornstar_2009-10-11.mp4 – 8.1 MB
eFukt_20579_The_Fearless_Fapper_2009-10-13.mp4 – 11.2 MB
eFukt_20581_A_Hole_In_One_2009-10-17.mp4 – 2.6 MB
eFukt_20584_Yo_No_Quiero_Butt_Fuck_2009-10-20.mp4 – 12.9 MB
eFukt_20586_A_Pervert_With_High_Standards_2009-10-23.mp4 – 4.7 MB
eFukt_20588_BEEP_BEEP_I_ve_Got_A_Boner_2009-10-25.mp4 – 9.2 MB
eFukt_20590_Suicide_By_Dildo_2009-10-27.mp4 – 8.6 MB
eFukt_20591_The_Inside_Out_Girl_2009-10-30.mp4 – 16.5 MB
eFukt_20592_Endurance_Fail_2009-11-02.mp4 – 4.3 MB
eFukt_20593_Mr._Plow_2009-11-03.mp4 – 16.8 MB
eFukt_20594_Bitch_You_Broke_My_Dick_2009-11-04.mp4 – 8.8 MB
eFukt_20596_Holy_Shit_2009-11-07.mp4 – 2.2 MB
eFukt_20598_Rough_Sex_Fail_2009-11-09.mp4 – 11.1 MB
eFukt_20600_Anal_Creampie_From_Hell_2009-11-11.mp4 – 11.1 MB
eFukt_20604_He_ll_Never_Do_Porn_Again_2009-11-17.mp4 – 16.1 MB
eFukt_20606_The_Blob_2009-11-19.mp4 – 23.0 MB
eFukt_20607_The_Sherminator_2009-11-20.mp4 – 20.9 MB
eFukt_20608_OOPS_Wrong_Hole_2009-11-22.mp4 – 2.3 MB
eFukt_20610_10_Inches_Of_Terror_2009-11-24.mp4 – 12.2 MB
eFukt_20611_Hung_Like_Bart_Simpson_2009-11-27.mp4 – 24.5 MB
eFukt_20614_Babysitting_Fail_2009-12-03.mp4 – 5.7 MB
eFukt_20615_Dude_That_s_My_Mom_s_Friend_2009-12-07.mp4 – 18.2 MB
eFukt_20616_Orgasm_Fail_2009-12-08.mp4 – 7.4 MB
eFukt_20617_Goth_Blowjob_Fail_2009-12-09.mp4 – 4.4 MB
eFukt_20618_The_Headless_Penis_2009-12-13.mp4 – 8.6 MB
eFukt_20620_Gang_Member_Of_The_Year_2009-12-16.mp4 – 11.7 MB
eFukt_20623_Scat_Fail_2009-12-20.mp4 – 20.3 MB
eFukt_20624_Pocahontas_Accidentally_Shits_Herself_2009-12-23.mp4 – 35.9 MB
eFukt_20629_A_Colonoscopy_Before_Anal_2010-01-01.mp4 – 84.3 MB
eFukt_20630_The_Soccer_Mom_2010-01-04.mp4 – 32.9 MB
eFukt_20631_Seduction_Fail_2010-01-05.mp4 – 9.0 MB
eFukt_20632_How_Pornstars_Get_Pinkeye_2010-01-08.mp4 – 1.9 MB
eFukt_20633_LOL_Wrong_Hole_2010-01-11.mp4 – 4.9 MB
eFukt_20634_Maid_Mayhem_2010-01-14.mp4 – 14.5 MB
eFukt_20636_Masturbation_Fail_2010-01-23.mp4 – 2.2 MB
eFukt_20637_My_Older_Sister_Butt_Nekkid_2010-01-26.mp4 – 1.5 MB
eFukt_20638_Russian_Teacher_Gets_Sharked_2010-01-26.mp4 – 2.1 MB
eFukt_20639_Hi_My_Penis_Is_3_Feet_Long_2010-01-26.mp4 – 49.3 MB
eFukt_20643_Porno_Accidente_2010-02-01.mp4 – 2.1 MB
eFukt_20645_There_Goes_My_Porn_Career_2010-02-06.mp4 – 8.1 MB
eFukt_20651_Crackwhore_Confesses_To___2010-02-14.mp4 – 31.3 MB
eFukt_20652_He_Rather_Fuck_A_Horse_2010-02-16.mp4 – 37.1 MB
eFukt_20653_MOM…_FUUUUUUUUU_2010-02-18.mp4 – 4.5 MB
eFukt_20654_Cornhole_Destruction_2010-02-22.mp4 – 13.1 MB
eFukt_20655_My_Sister_Caught_Me_Masturbating_2010-02-23.mp4 – 2.7 MB
eFukt_20657_Wife_Of_The_Year_2010-02-25.mp4 – 20.1 MB
eFukt_20658_I_ll_Fuck_You_Up_2010-02-28.mp4 – 12.4 MB
eFukt_20660_Bachelor_Party_-_eFukt_style_2010-03-05.mp4 – 3.4 MB
eFukt_20662_Hygiene_Fail_2_2010-03-08.mp4 – 5.7 MB
eFukt_20663_Thugs_Harass_Interracial_Couple_2010-03-10.mp4 – 11.4 MB
eFukt_20664_I_Lost_My_Virginity_To_A_Dog_2010-03-10.mp4 – 49.9 MB
eFukt_20667_The_Prune_Brothers_2010-03-16.mp4 – 29.9 MB
eFukt_20668_Brown_Bag_2010-03-17.mp4 – 5.2 MB
eFukt_20669_Who_Wants_Lasagna_2010-03-21.mp4 – 7.8 MB
eFukt_20670_Enthusiasm_Fail_2010-03-23.mp4 – 5.4 MB
eFukt_20674_Rectal_Control_Fail_2010-03-30.mp4 – 3.0 MB
eFukt_20676_Death_By_Titties_2010-04-01.mp4 – 31.4 MB
eFukt_20677_Autofellatio_Fail_2010-04-04.mp4 – 4.9 MB
eFukt_20681_Amazing_Horse_2010-04-18.mp4 – 22.5 MB
eFukt_20682_Do_Not_Want_2010-04-12.mp4 – 8.4 MB
eFukt_20684_A_Gangbang_Before_Marriage_2010-04-14.mp4 – 40.0 MB
eFukt_20685_Lesbian_Fail_2010-04-17.mp4 – 5.5 MB
eFukt_20686_The_Pencil_Test_2010-04-18.mp4 – 13.1 MB
eFukt_20687_LOL_GTFO_Grandma_2010-05-29.mp4 – 2.4 MB
eFukt_20690_Queefing_Beauty_2010-04-23.mp4 – 4.5 MB
eFukt_20691_Fucking_Hipsters_2010-04-24.mp4 – 29.0 MB
eFukt_20692_Time_To_Retire_2010-04-25.mp4 – 8.0 MB
eFukt_20693_Even_Jocks_Premature_Ejaculate_2010-04-26.mp4 – 4.8 MB
eFukt_20694_WTF_Is_That_Cum_2010-04-29.mp4 – 5.8 MB
eFukt_20695_I_Haz_A_Headache_2010-04-30.mp4 – 10.8 MB
eFukt_20696_Blumpkins_Really_Do_Exist_2010-05-05.mp4 – 5.5 MB
eFukt_20697_The_Craziest_Of_All_Crazy_Bitches_2010-05-06.mp4 – 30.2 MB
eFukt_20698_Pornstars__Cocaine_=_WIN_2010-05-10.mp4 – 6.9 MB
eFukt_20699_The_Speechless_Slut_2010-05-11.mp4 – 9.9 MB
eFukt_20700_Girl_Got_HIV_After_Doing_Anal_2010-05-13.mp4 – 38.7 MB
eFukt_20701_NO_ME_GUSTA_JIZZUM_2010-05-16.mp4 – 8.5 MB
eFukt_20702_Meanwhile_in_Russia…_2010-05-16.mp4 – 14.2 MB
eFukt_20703_Super_Mom_2010-05-17.mp4 – 40.3 MB
eFukt_20704_Surfer_Bro_Cums_In_30_Seconds_2010-05-18.mp4 – 11.5 MB
eFukt_20705_Before__After_2010-05-21.mp4 – 11.7 MB
eFukt_20706_A_Random_Act_Of_Kindness_2010-06-09.mp4 – 10.5 MB
eFukt_20708_Homo_Fail_2010-05-30.mp4 – 4.7 MB
eFukt_20709_Friendly_Fire_2010-05-30.mp4 – 1.3 MB
eFukt_20710_How_To_Get_A_Girls_Digits_2010-05-30.mp4 – 4.0 MB
eFukt_20713_Voyeur_Fail_2010-06-02.mp4 – 3.9 MB
eFukt_20715_Husband_Of_The_Year_2010-06-06.mp4 – 30.0 MB
eFukt_20716_Is_It_In_Yet_2010-06-07.mp4 – 22.9 MB
eFukt_20718_Masculinity_Fail_2010-06-17.mp4 – 12.0 MB
eFukt_20719_Earthworm_Jim_2010-06-17.mp4 – 3.5 MB
eFukt_20720_A_Discussion_On_Beastiality_2010-06-17.mp4 – 14.5 MB
eFukt_20722_I_Hate_Cum_2010-06-20.mp4 – 22.0 MB
eFukt_20723_Drug_Mule_In_Training_2010-06-22.mp4 – 2.1 MB
eFukt_20724_Dildo_Causes_Internal_Damage_2010-06-26.mp4 – 4.2 MB
eFukt_20725_Lemme_Smell_Yo_Dick_2010-06-27.mp4 – 9.3 MB
eFukt_20726_She_HATES_Blowjobs_LOL_2010-06-27.mp4 – 3.9 MB
eFukt_20728_Sneak_Attack_2010-06-28.mp4 – 6.7 MB
eFukt_20730_Gay_Thugs_Ruin_Porno_Shoot_2010-07-01.mp4 – 23.1 MB
eFukt_20731_Crying_Over_Fake_Cum_2010-07-04.mp4 – 14.2 MB
eFukt_20733_Daughter_Of_The_Year_2010-07-09.mp4 – 9.0 MB
eFukt_20734_Threesome_Fail_2010-07-12.mp4 – 5.8 MB
eFukt_20735_DP_Fail_2010-07-12.mp4 – 11.4 MB
eFukt_20736_Barebacking_Gone_Wrong_2010-07-13.mp4 – 13.0 MB
eFukt_20737_Stripper_Pwns_Her_Audience_2010-07-14.mp4 – 7.8 MB
eFukt_20738_Persistance_Fail_2010-07-19.mp4 – 7.3 MB
eFukt_20739_Twig_Girl_2010-07-20.mp4 – 11.8 MB
eFukt_20740_Cheating_Fail_2010-07-21.mp4 – 6.4 MB
eFukt_20742_Awesome_Fail_2010-07-26.mp4 – 11.3 MB
eFukt_20743_She_Hates_Gangbangs_2010-07-28.mp4 – 19.1 MB
eFukt_20746_Dont_Slap_The_Titties_2010-08-03.mp4 – 29.1 MB
eFukt_20747_Comfort_Fail_2010-08-05.mp4 – 22.0 MB
eFukt_20749_Attention_Whore_In_Compton_2010-08-09.mp4 – 14.6 MB
eFukt_20750_Girl_Orgasms_Via_Rollercoaster_2010-08-11.mp4 – 7.1 MB
eFukt_20751_Happy_Ending_Fail_2010-08-17.mp4 – 6.6 MB
eFukt_20752_Daughter_Of_The_Year_2_2010-08-17.mp4 – 11.7 MB
eFukt_20753_LOL_Sexual_Inferiority_2010-08-17.mp4 – 5.1 MB
eFukt_20755_Anal_KO_2010-08-19.mp4 – 3.3 MB
eFukt_20756_The_Vibrating_Pussy_2010-08-28.mp4 – 19.3 MB
eFukt_20757_Fart_Fail_-_HILARIOUS_2010-08-28.mp4 – 5.8 MB
eFukt_20758_Pervert_Ridiculed_By_Crowd_2010-08-30.mp4 – 3.5 MB
eFukt_20759_Your_Pussy_Is_Too_Tight_2010-09-05.mp4 – 10.3 MB
eFukt_20760_Even_Women_Premature_Ejaculate_2010-09-07.mp4 – 17.9 MB
eFukt_20761_Hammer_Head_2010-09-12.mp4 – 6.3 MB
eFukt_20767_Exhibitionist_Fail_2010-09-16.mp4 – 1.8 MB
eFukt_20768_Feminist_Attacks_Cocky_Stripper_2010-09-19.mp4 – 9.7 MB
eFukt_20769_Umm…_Where_s_The_Condom_2010-09-22.mp4 – 10.8 MB
eFukt_20770_The_Safe_Word_2010-09-25.mp4 – 24.2 MB
eFukt_20772_Too_Much_Info_2010-10-02.mp4 – 15.2 MB
eFukt_20773_I_Love_Meaty_2010-10-08.mp4 – 78.5 MB
eFukt_20775_Your_Body_Is_Your_Temple_2010-10-12.mp4 – 5.7 MB
eFukt_20777_38_Years_Without_Ejaculation_2010-10-18.mp4 – 11.9 MB
eFukt_20778_Figging_Gone_Wrong_2010-10-21.mp4 – 30.4 MB
eFukt_20779_He_Cums_Battery_Acid_2010-10-24.mp4 – 28.9 MB
eFukt_20780_Ragegasm_2010-10-28.mp4 – 5.8 MB
eFukt_20781_Bad_Aim_2010-10-30.mp4 – 1.9 MB
eFukt_20782_Balls_Deep_or_GTFO_2010-11-02.mp4 – 36.0 MB
eFukt_20783_College_Class_On_Fisting_2010-11-04.mp4 – 34.9 MB
eFukt_20785_Good_Things_Small_Packages_2010-11-08.mp4 – 6.0 MB
eFukt_20786_Endless_Orgasm_Causes_Brain_Damage_2010-11-10.mp4 – 16.2 MB
eFukt_20787_Storytime_With_A_Crackwhore_2010-11-14.mp4 – 26.8 MB
eFukt_20788_The_Art_Of_Male_Stripping_2010-11-18.mp4 – 56.5 MB
eFukt_20796_Get_Bent_2010-11-28.mp4 – 10.3 MB
eFukt_20798_Jabba_The_Slut_2010-10-01.mp4 – 10.0 MB
eFukt_20799_Attention_Whore_Fail_2010-12-01.mp4 – 37.2 MB
eFukt_20800_Bait__Switch_2010-12-05.mp4 – 31.3 MB
eFukt_20801_Pulsating_Pussy_2010-12-08.mp4 – 19.8 MB
eFukt_20803_Porn_Directors_Are_Funny_2010-12-13.mp4 – 5.3 MB
eFukt_20804_Rotten_Crotch_2010-12-13.mp4 – 10.7 MB
eFukt_20805_Epic_Orgasm_2010-12-15.mp4 – 20.2 MB
eFukt_20808_WOW_-_Redefining_Premature_Ejaculation_2010-12-20.mp4 – 6.2 MB
eFukt_20810_Cockblockers_2010-12-20.mp4 – 5.2 MB
eFukt_20812_But_I_Dont_Do_Anal_2010-12-27.mp4 – 16.7 MB
eFukt_20814_Pornstar_Cries_Over_Insult_2010-12-27.mp4 – 15.0 MB
eFukt_20815_Money_Shot_Fail_2011-01-02.mp4 – 8.6 MB
eFukt_20818_Gimme_A_Fuckin_Towel_2011-01-02.mp4 – 11.5 MB
eFukt_20819_Blame_It_On_The_Orgasm_2011-01-09.mp4 – 13.0 MB
eFukt_20820_Being_A_Maid_Sucks_More_Than_You_Know_2011-01-09.mp4 – 14.4 MB
eFukt_20821_Priceless_O-Face_2011-01-09.mp4 – 17.0 MB
eFukt_20822_I_Hate_Cum_2_2011-01-16.mp4 – 21.5 MB
eFukt_20823_Scent_Of_A_Woman_2011-01-16.mp4 – 12.0 MB
eFukt_20824_Intellectual_Fail_2011-01-20.mp4 – 12.1 MB
eFukt_20825_Mother-Daughter_Porno_Fail_2011-01-24.mp4 – 9.5 MB
eFukt_20826_Creampie_Fail_2011-01-29.mp4 – 6.5 MB
eFukt_20828_I_Pwn3d_Your_Virginity_2011-01-29.mp4 – 22.8 MB
eFukt_20831_Big_Meaty_Balls_2011-02-10.mp4 – 6.1 MB
eFukt_20832_Stink_Palm_2011-02-10.mp4 – 8.4 MB
eFukt_20833_Gangbanged_Into_Orgasmic_Bliss_2011-02-10.mp4 – 17.6 MB
eFukt_20834_Mission_Impossible_Dont_Cum_2011-02-14.mp4 – 15.1 MB
eFukt_20838_Hey_Mikey_She_HATES_It_2011-02-23.mp4 – 3.3 MB
eFukt_20839_Bukakke_Shoot_Turns_Violent_2011-02-23.mp4 – 19.3 MB
eFukt_20840_Fuck_Me_Like_You_re_Mad_2011-03-01.mp4 – 12.0 MB
eFukt_20841_Damaged_Goods_2011-03-04.mp4 – 15.0 MB
eFukt_20842_Derpy_Derp_Orgasmo_Girl_2011-03-07.mp4 – 12.3 MB
eFukt_20843_Bukkake_Fail_2011-03-09.mp4 – 9.0 MB
eFukt_20845_The_Pink_Taco_2011-03-12.mp4 – 6.6 MB
eFukt_20846_The_BUSTED_Compilation_2011-03-14.mp4 – 16.2 MB
eFukt_20847_Gangbang_Fail_2011-03-17.mp4 – 20.9 MB
eFukt_20849_Gilf_Has_Trouble_With_Anal_2011-03-20.mp4 – 28.1 MB
eFukt_20850_Lesbian_Porn_Gone_Bad_2011-03-24.mp4 – 23.7 MB
eFukt_20851_Squirt_Fail_2011-03-28.mp4 – 3.8 MB
eFukt_20852_Drugs_Make_Girls_Obnoxious_2011-03-29.mp4 – 13.5 MB
eFukt_20853_Speech_Disorders__Anal_Sex_Dont_Mix_2011-04-03.mp4 – 18.5 MB
eFukt_20854_Squirt_Fail_2_2011-04-05.mp4 – 20.7 MB
eFukt_20855_Grandma_I_Just_Got_DP_ed_2011-04-19.mp4 – 5.8 MB
eFukt_20856_Attack_Of_The_2_Incher_2011-04-19.mp4 – 3.6 MB
eFukt_20858_Convicted_Killer_Hates_Anal_2011-04-19.mp4 – 16.3 MB
eFukt_20859_Porn_Noob_Pwns_Himself_2011-04-19.mp4 – 3.5 MB
eFukt_20861_Facefucking_Fail_2011-04-21.mp4 – 8.7 MB
eFukt_20863_Wrong_Hole_Charlie_Brown_2011-04-26.mp4 – 7.1 MB
eFukt_20864_Dont_Fuck_With_Gianna_2011-04-29.mp4 – 5.6 MB
eFukt_20865_Faces_Of_Bukkake_2011-05-02.mp4 – 13.6 MB
eFukt_20867_An_Explosive_Orgasm_-_Literally_2011-05-09.mp4 – 4.3 MB
eFukt_20869_Small_Cocks__The_Gloryhole_2011-05-11.mp4 – 20.3 MB
eFukt_20871_Sniffing_Her_Butt_Wont_Help_2011-05-16.mp4 – 5.1 MB
eFukt_20872_Smegma_Makes_Her_Gag_2011-05-19.mp4 – 17.2 MB
eFukt_20873_Delivery_Dude_Jizzes_His_Pants_2011-05-23.mp4 – 9.9 MB
eFukt_20874_LOL_She_Rather_Fuck_A_Horse_2011-05-24.mp4 – 22.2 MB
eFukt_20875_Cute_Face_Ugly_Vagina_2011-05-27.mp4 – 14.0 MB
eFukt_20876_Bad_Cumshot_2011-05-30.mp4 – 3.4 MB
eFukt_20877_Rage_Quit_2011-06-01.mp4 – 23.1 MB
eFukt_20878_Hipster_Slut_Gets_Unexpected_Anal_2011-06-06.mp4 – 8.6 MB
eFukt_20879_Did_I_Just_Do_Anal…._IDK_2011-06-08.mp4 – 13.8 MB
eFukt_20880_Hobo_Outwits_Prostitute_CLASSIC_2011-06-11.mp4 – 10.6 MB
eFukt_20881_Asian_Girl_Got_Talent_2011-06-13.mp4 – 11.7 MB
eFukt_20882_Jerk_Deliberately_Cums_In_Her_Ear_2011-06-18.mp4 – 25.1 MB
eFukt_20883_The_Single_Most_Epic_Cumshot_Fail_2011-06-19.mp4 – 12.8 MB
eFukt_20886_Anorexic_Girl_Has_Ginormous_Pussy_2011-06-26.mp4 – 13.2 MB
eFukt_20888_Double_Vadge_FAIL_2011-06-29.mp4 – 6.1 MB
eFukt_20889_Drivethru_Facial_2011-07-02.mp4 – 10.0 MB
eFukt_20890_Pornstar_Loses_Her_Shit_2011-07-05.mp4 – 9.9 MB
eFukt_20891_Roidgasm_2011-07-08.mp4 – 21.4 MB
eFukt_20892_Ukrainian_Girl_Got_Talent_2011-07-11.mp4 – 14.4 MB
eFukt_20897_Crazy_Squealing_Orgasm_2011-07-17.mp4 – 19.9 MB
eFukt_20898_Black_Assholes_Cause_An_Early_Retirement_2011-07-20.mp4 – 14.0 MB
eFukt_20899_Hooker_Accidentally_Craps_Herself_2011-07-21.mp4 – 20.6 MB
eFukt_20900_How_To_Fuck_Like_White_Trash_2011-07-23.mp4 – 8.8 MB
eFukt_20901_Anal_Orgasms_DO_Exist_2011-07-26.mp4 – 9.1 MB
eFukt_20903_HARDER_Or_I_Cant_Cum_2011-07-31.mp4 – 26.9 MB
eFukt_20905_Dude_Upstages_Everyone__Gangbang_2011-08-03.mp4 – 20.1 MB
eFukt_20906_Goober_Crashes_Bukkake_Party_2011-08-07.mp4 – 15.6 MB
eFukt_20907_Threesome_Gone_Bad_2011-08-10.mp4 – 5.8 MB
eFukt_20908_She_Claims_She_Fucked_Her…_2011-08-12.mp4 – 28.4 MB
eFukt_20909_Sex_On_The_Beach_FAIL_2011-08-15.mp4 – 17.5 MB
eFukt_20910_Rimjob_FAIL_2011-08-17.mp4 – 6.0 MB
eFukt_20911_Man_Of_The_Year_2011-08-22.mp4 – 12.6 MB
eFukt_20912_Ukrainian_Girl_Got_Talent_2_2011-08-27.mp4 – 10.0 MB
eFukt_20913_Good_Idea_Bad_Idea_2011-08-29.mp4 – 4.5 MB
eFukt_20914_Make_Me_A_Vegatable_2011-08-30.mp4 – 11.2 MB
eFukt_20916_FAIL_Teacher_Attempts_Double_Anal_2011-08-31.mp4 – 25.8 MB
eFukt_20917_Whoregasm_2011-09-06.mp4 – 19.6 MB
eFukt_20918_The_Trolling_Of_Wannabe_Pornstars_2011-09-08.mp4 – 17.0 MB
eFukt_20919_1st_Blowjob_-_FEELS_GOOD_MAN_2011-09-13.mp4 – 12.4 MB
eFukt_20920_Tranny_Wrecks_Some_Ass_2011-09-14.mp4 – 8.9 MB
eFukt_20921_Cum_Dodger_FAIL_2011-09-19.mp4 – 11.8 MB
eFukt_20922_Maid_Entranced_By_Gringo_Cock_2011-09-22.mp4 – 13.3 MB
eFukt_20923_Gangbanged_Then_Tears_Of_Joy_2011-09-28.mp4 – 12.1 MB
eFukt_20924_Happy_Ending_WIN_2011-09-30.mp4 – 14.8 MB
eFukt_20925_Double_Fist_=_Instant_Orgasm_2011-10-04.mp4 – 21.7 MB
eFukt_20926_Pornstar_Drops_N_Bomb_2011-10-07.mp4 – 9.1 MB
eFukt_20927_Sybian_Morphs_Crazy_Slut_Into_Crazier_Slut_2011-10-09.mp4 – 13.6 MB
eFukt_20928_Premature_Ejaculation…_LIKE_A_BOSS_2011-10-12.mp4 – 7.7 MB
eFukt_20929_The_24_Year_Old_Virgin_2011-10-13.mp4 – 17.8 MB
eFukt_20930_HURRY_UP_and_CUM_2012-02-17.mp4 – 23.5 MB
eFukt_20932_Dumbest_Girl_In_Porn_2011-10-21.mp4 – 27.0 MB
eFukt_20933_Biggest_Bitch_In_Porn_2011-10-25.mp4 – 36.7 MB
eFukt_20935_Filmmaker_Accuses_Max_Hardcore_Of…_2011-10-30.mp4 – 40.6 MB
eFukt_20936_LOL_Dude_Kills_Fly_During_Rough_Anal_2011-11-02.mp4 – 14.8 MB
eFukt_20938_The_10_Worst_Orgasms_Ever_Filmed_2011-11-06.mp4 – 25.0 MB
eFukt_20939_This_Is_Bad…_Very_Very_Bad_2011-11-09.mp4 – 9.1 MB
eFukt_20940_Brazillian_Fucks_600_Men_For_Nothing_2011-11-11.mp4 – 21.0 MB
eFukt_20941_From_HOT_To_CREEPY_In_5_Seconds_2011-11-14.mp4 – 5.0 MB
eFukt_20942_10_Men_-_My_Agent_Said_Only_2_2011-11-16.mp4 – 22.3 MB
eFukt_20943_Goober_Finally_Loses_Bukkake_Virginity_2011-11-19.mp4 – 30.7 MB
eFukt_20944_Pussy_In_A_Box_2011-11-21.mp4 – 29.9 MB
eFukt_20945_Asian_Stoner_Has_Epic_Ass_2011-11-23.mp4 – 16.8 MB
eFukt_20947_Not_Even_A_Minute_Man_2011-11-30.mp4 – 9.8 MB
eFukt_20949_The_24_Year_Old_FEMALE_Virgin_2011-12-01.mp4 – 54.5 MB
eFukt_20950_YIKES_Wigger_Has_Crazy_Breakdown_2011-12-05.mp4 – 29.8 MB
eFukt_20951_The_Worst_O-Face_You_ll_Ever_See_2011-12-08.mp4 – 14.4 MB
eFukt_20953_PAINAL_I_Wont_Give_Up_2011-12-19.mp4 – 18.7 MB
eFukt_20954_The_Trolling_Of_Wannabe_Pornstars_II_2011-12-21.mp4 – 18.7 MB
eFukt_20955_Clingers_2011-12-30.mp4 – 81.1 MB
eFukt_20956_13_INCHER_=_RIDICULOUS_ORGASM_2012-01-04.mp4 – 16.3 MB
eFukt_20957_The_24_Year_Old_FEMALE_Virgin_II_2012-01-06.mp4 – 38.3 MB
eFukt_20959_Clam_Chowder_2012-01-14.mp4 – 21.2 MB
eFukt_20961_Webmaster_Talks_Fan_Into_Fisting_Herself_2012-01-18.mp4 – 18.1 MB
eFukt_20962_OOPS_I_Accidentally_Sodomized_You_2012-01-22.mp4 – 28.9 MB
eFukt_20963_Bad_Times_At_The_Bachelorette_Party_2012-01-25.mp4 – 18.8 MB
eFukt_20964_Hillbilly_Wants_To_Kill_Cameraman_2012-01-30.mp4 – 11.2 MB
eFukt_20966_Turtling_While_69_ing_LOLOLOL_2012-02-02.mp4 – 31.4 MB
eFukt_20967_The_Most_Gentle_Breakdown_Ever_2012-02-06.mp4 – 16.8 MB
eFukt_20969_Lonely_Arab_REALLY_Wants_Free_Head_2012-02-19.mp4 – 23.2 MB
eFukt_20970_Sit_Your_Whore_Ass_Down_2012-02-21.mp4 – 10.1 MB
eFukt_20972_RARE_Girl_Actually_Cums_On_Facial_Abuse_2012-02-27.mp4 – 17.0 MB
eFukt_20973_Gianna_PWNS_Heckling_Hector_2012-02-29.mp4 – 29.6 MB
eFukt_20974_YOU_MAD_2012-03-05.mp4 – 15.9 MB
eFukt_20975_The_Worst_Cumshot_Of_All_Time_2012-03-06.mp4 – 9.9 MB
eFukt_20976_Teacher_Of_The_Millennium_2012-03-09.mp4 – 18.8 MB
eFukt_20977_Frat_Boys_Troll_3_Pornstars_Into_Quitting_2012-03-13.mp4 – 20.6 MB
eFukt_20979_Cocaine_Doesnt_Make_You_Good_At_Sex_2012-03-19.mp4 – 13.7 MB
eFukt_20980_Mexican_Teen_Cant_Even_Take_1_Inch_2012-03-25.mp4 – 23.8 MB
eFukt_20981_No_Lube_FTW_2012-03-28.mp4 – 8.3 MB
eFukt_20982_Erectile_Dysfunction…_LIKE_A_BOSS_2012-04-02.mp4 – 16.2 MB
eFukt_20984_The_Art_Of_Hating_Cum_2012-04-08.mp4 – 28.8 MB
eFukt_20985_14_Incher_Causes_Gianna_To_Quit_2012-04-10.mp4 – 14.5 MB
eFukt_20986_You_Want_To_Quit…_FOR_REALZ_2012-05-07.mp4 – 23.8 MB
eFukt_20987_Bro_Shits_Himself_After_Knocking_Girl_Out_2012-04-26.mp4 – 9.5 MB
eFukt_20988_13_Most_Ridiculous_Orgasms_Ever_2012-05-02.mp4 – 32.2 MB
eFukt_20989_Creme_Fraiche_d_2012-05-11.mp4 – 14.8 MB
eFukt_20991_She_Fucks_Moolionairs_2012-05-15.mp4 – 13.1 MB
eFukt_20992_A_Different_Type_Of_Breakdown_2012-05-21.mp4 – 17.4 MB
eFukt_20993_EPIC_ASS_IS_EPIC_2012-05-24.mp4 – 17.5 MB
eFukt_20994_The_Return_Of_Gentle_Breakdown_Girl_2012-06-04.mp4 – 13.6 MB
eFukt_20996_Bath_Salts_=_INSANE_SEX_2012-06-12.mp4 – 12.9 MB
eFukt_21001_The_Milf_From_Mars_2012-06-25.mp4 – 19.7 MB
eFukt_21002_The_Trolling_Of_Wannabe_Pornstars_3_2012-07-02.mp4 – 21.9 MB
eFukt_21004_Rejected…_LIKE_A_BOSS_2012-07-19.mp4 – 13.4 MB
eFukt_21005_How_Is_This_Even_Possible_2012-07-23.mp4 – 8.1 MB
eFukt_21007_The_Dumbest_Shit_Ever_Said_In_Porn_2012-07-30.mp4 – 22.1 MB
eFukt_21008_Broken_Dreams_Broken_Buttholes_2012-08-03.mp4 – 21.6 MB
eFukt_21010_78_Percent_Of_His_Sexual_Partners_Quit_2012-08-15.mp4 – 17.4 MB
eFukt_21011_Seriously_what_the_fuck_is_that_2012-08-19.mp4 – 12.5 MB
eFukt_21012_cRaZy_whore_is_cRaZy_2012-08-24.mp4 – 25.6 MB
eFukt_21013_Would_Not_Hit_2012-08-28.mp4 – 14.4 MB
eFukt_21015_Passion_of_the_Painal_2012-09-07.mp4 – 23.4 MB
eFukt_21016_1_Girl_1_Cigarette_2012-09-21.mp4 – 8.8 MB
eFukt_21017_Shy_Scared__Fucking_Beautiful_2012-10-04.mp4 – 23.9 MB
eFukt_21018_Mother_of_the_Year_2012-10-12.mp4 – 18.8 MB
eFukt_21020_Painfully_Awkward_Moments_in_Porn_2012-10-28.mp4 – 31.8 MB
eFukt_21040_Porn_Scenes_Worthy_of_an_Oscar_2012-11-07.mp4 – 28.6 MB
eFukt_21046_Her_G-Spot_Is_In_Her_Butthole_2012-11-30.mp4 – 26.4 MB
eFukt_21047_He_Hates_Crackwhores_2011-12-03.mp4 – 16.4 MB
eFukt_21048_The_Meltdown_Compilation_2012-12-12.mp4 – 35.0 MB
eFukt_21049_It_s_Only_Smellz_2012-12-19.mp4 – 27.1 MB
eFukt_21051_The_Camwhore_Awards_2013-01-09.mp4 – 29.3 MB
eFukt_21052_Czech_porn_is_hilariously_horrible_2013-01-21.mp4 – 26.3 MB
eFukt_21053_Mom_Fascinated_By_Daughter_s_Sextape_2013-02-03.mp4 – 25.4 MB
eFukt_21054_CORN_BEYOND_BUKKAKE_2013-02-18.mp4 – 31.7 MB
eFukt_21055_The_Trainwreck_of_all_Trainwrecks_2013-02-28.mp4 – 25.6 MB
eFukt_21056_The_Harlem_Struggle_2013-03-11.mp4 – 6.6 MB
eFukt_21057_85_Pound_Nerd_Masturbates__Work_2013-03-21.mp4 – 24.9 MB
eFukt_21058_Accidental_Anal_Devirginization_2013-03-26.mp4 – 7.2 MB
eFukt_21060_Prostitute_Lasts_Only_28_Seconds_2013-04-06.mp4 – 17.0 MB
eFukt_21063_The_Giggliest_Girl_in_Porn_2013-04-17.mp4 – 29.6 MB
eFukt_21064_How_To_Harass_An_18_Y_O_Into_Doing_Anal_2013-05-06.mp4 – 29.7 MB
eFukt_21065_The_Creepiest_Motherfucker_in_Porn_2013-05-15.mp4 – 22.9 MB
eFukt_21066_College_Students_Rather_Spy_Than_Fuck_2013-05-18.mp4 – 13.5 MB
eFukt_21067_The_Virgin_of_All_Virgins_2013-05-27.mp4 – 15.4 MB
eFukt_21068_A_Different_Kind_of_Painal_2013-05-29.mp4 – 9.5 MB
eFukt_21069_Skater_Bro_Fucks_His_Own_Grandmother_2013-06-03.mp4 – 19.2 MB
eFukt_21071_Breaking_Points_2013-06-11.mp4 – 27.6 MB
eFukt_21072_100_Most_brutl_Orgasms_of_all_Time_2013-06-15.mp4 – 19.8 MB
eFukt_21074_OOPS_I_Stabbed_Your_Cervix_2013-06-26.mp4 – 23.8 MB
eFukt_21076_The_Destruction_of_A_Stuttering_Asian_2013-07-07.mp4 – 25.1 MB
eFukt_21077_Too_Drunk_To_Orgy_2013-07-09.mp4 – 6.6 MB
eFukt_21078_Crushed_Dreams_Of_Porn_Stardom_2013-07-18.mp4 – 35.0 MB
eFukt_21079_The_Bukkake_Horror_Show_2013-07-23.mp4 – 7.4 MB
eFukt_21080_The_Education_of_a_Spanish_Virgin_2013-07-30.mp4 – 18.4 MB
eFukt_21081_The_Socially_Awkward_Teenager_2013-08-13.mp4 – 18.6 MB
eFukt_21082_Ratchet_Hookers_Under_$20_2013-08-09.mp4 – 30.3 MB
eFukt_21083_Hey_Daddy_look_what_I_can_do_2013-08-05.mp4 – 12.7 MB
eFukt_21084_The_Creepiest_Motherfucker_In_Porn_2_2013-08-17.mp4 – 31.1 MB
eFukt_21085_Newb_Gangbang_Chick_Finally_Breaks_2013-08-22.mp4 – 16.6 MB
eFukt_21086_My_Vagina_Is_On_FUCKING_Fire_2013-08-26.mp4 – 12.6 MB
eFukt_21087_Ass_to_Mouth_with_Consequences_2013-08-31.mp4 – 11.0 MB
eFukt_21088_The_Cam_Whore_Awards_Round_Two_2013-09-04.mp4 – 26.6 MB
eFukt_21089_Escort_Flips_Her_Shit_On_Client_2013-09-07.mp4 – 21.9 MB
eFukt_21091_Water_Knives_and_Used_Toilet_Paper_2013-09-13.mp4 – 11.3 MB
eFukt_21092_Porn_Scenes_Worthy_of_an_Oscar_Part_Two_2013-09-20.mp4 – 28.9 MB
eFukt_21094_The_Trolling_Of_Wannabe_Pornstars_4_2013-09-27.mp4 – 17.2 MB
eFukt_21095_I_FUCKING_HATE_CUM_2013-10-02.mp4 – 26.6 MB
eFukt_21096_Butt_Sex_Sends_Poor_Girl_to_the_ER_2013-10-07.mp4 – 6.3 MB
eFukt_21097_The_Shit_Pornstars_Say_2013-10-09.mp4 – 20.7 MB
eFukt_21098_Intentionally_Caught_Jacking_Off_2_2013-10-14.mp4 – 13.3 MB
eFukt_21100_Lost_My_Virginity_To_A_Pornstar_2013-10-20.mp4 – 15.5 MB
eFukt_21101_First_Sex_Toy_In_Space_2013-10-23.mp4 – 11.2 MB
eFukt_21102_The_Adorablest_Camwhore_2013-10-25.mp4 – 9.8 MB
eFukt_21103_Porn_s_Biggest_Losers_2013-10-30.mp4 – 25.5 MB
eFukt_21104_The_Most_Beautiful_Breakdown_Ever_2013-11-05.mp4 – 13.2 MB
eFukt_21105_The_Worst_Tattoos_in_Porn_2013-11-10.mp4 – 14.8 MB
eFukt_21106_The_Absurdity_of_Japanese_Pornography_2013-11-14.mp4 – 26.3 MB
eFukt_21107_Ratchet_Sex_Tape_Fails_2013-11-18.mp4 – 20.0 MB
eFukt_21111_Awkward_Guy_Ruins_Porn_Shoot_2013-12-03.mp4 – 15.9 MB
eFukt_21112_Vitalyzdtv_Does_Bang_Bus_2013-12-08.mp4 – 31.0 MB
eFukt_21113_The_Worst_Tits_in_Porn_2013-12-13.mp4 – 9.7 MB
eFukt_21114_U_GOT_WHAT_IN_YOUR_EYE_2013-12-16.mp4 – 4.7 MB
eFukt_21115_Sexually_Inexperienced_And_Terrified_2013-12-22.mp4 – 14.2 MB
eFukt_21116_The_Absurdity_Of_Japanese_Pornography_2_2013-12-30.mp4 – 22.9 MB
eFukt_21119_Shit_Cam_Whorez_Do_2014-01-08.mp4 – 12.1 MB
eFukt_21120_After_The_Tijuana_Donkey_Show_2014-01-10.mp4 – 4.0 MB
eFukt_21121_Awkward_Moments_In_Porn_2014-01-17.mp4 – 27.4 MB
eFukt_21122_The_Anal_Full_Nelson_2014-01-23.mp4 – 11.9 MB
eFukt_21124_OOPZ_LOST_TEH_DILDO_2014-02-04.mp4 – 16.7 MB
eFukt_21126_I_don_t_remember_this_in_Robocop_2014-02-07.mp4 – 23.9 MB
eFukt_21129_The_Biggest_Whore_In_History_2014-02-16.mp4 – 31.6 MB
eFukt_21130_WTF_Of_The_Year_2014-02-22.mp4 – 32.1 MB
eFukt_21132_The_Trolling_Of_Wannabe_Pornstars_5_2014-03-02.mp4 – 20.2 MB
eFukt_21133_The_Most_Pathetic_Lesbian_Scene_Of_All_Time_2014-03-09.mp4 – 10.8 MB
eFukt_21134_The_Duke_University_Feminist_Pornstar_2014-03-12.mp4 – 24.0 MB
eFukt_21136_11_of_Craziest_Orgasms_Ever_2014-03-20.mp4 – 30.2 MB
eFukt_21137_BUT_DADDY_IT_HURTS_2014-03-26.mp4 – 15.3 MB
eFukt_21138_The_Best_of_Naked_Protesters_2014-03-30.mp4 – 38.1 MB
eFukt_21139_How_to_Ruin_Your_Vagina_2014-04-03.mp4 – 20.2 MB
eFukt_21140_The_Giggliest_Girl_in_Porn_Returns_2014-04-07.mp4 – 22.4 MB
eFukt_21142_I_Haz_a_Breakdown_2014-04-11.mp4 – 16.8 MB
eFukt_21143_Porn_Scenes_Worthy_of_an_Oscar_3_2014-04-16.mp4 – 33.8 MB
eFukt_21145_The_Most_Embarrassing_Public_Ejaculation_Ever_2014-04-22.mp4 – 14.1 MB
eFukt_21146_College_Kids_Attempt_Public_Sex_and_FAIL_2014-04-23.mp4 – 2.5 MB
eFukt_21147_Mindfucking_the_Delivery_Man_2014-04-25.mp4 – 17.1 MB
eFukt_21148_Prostitute_Daughter_with_Vaginalitis_2014-05-01.mp4 – 21.1 MB
eFukt_21149_Luckiest_Guy_at_the_Strip_Club_2014-05-08.mp4 – 14.0 MB
eFukt_21150_Pornstars_Sexually_Destroy_Newbz_2014-05-11.mp4 – 27.8 MB
eFukt_21151_Awkward_Moments_in_Porn_3_2014-05-16.mp4 – 25.6 MB
eFukt_21153_Family_of_the_Year_2014-05-19.mp4 – 16.2 MB
eFukt_21154_Buffalo_Billy_s_Bath_Salt_Adventure_2014-05-23.mp4 – 24.9 MB
eFukt_21155_This_Guy_Told_Me_To_Go_Fuck_Myself_2014-05-30.mp4 – 7.2 MB
eFukt_21156_Deaf_Azn_Girl_2014-06-04.mp4 – 15.1 MB
eFukt_21157_Won_t_Ever_Do_Anal_Again_2014-06-09.mp4 – 3.2 MB
eFukt_21158_The_Most_Obnoxious_Cameraman_in_Porno_History_2014-06-14.mp4 – 27.5 MB
eFukt_21159_INCREDIBLE_3_Orgasms_in_90_Seconds_2014-06-20.mp4 – 16.9 MB
eFukt_21163_Daughter_of_the_Year_2014-06-24.mp4 – 14.2 MB
eFukt_21164_18_Y_O_Quits_Porn_After_90_Seconds_2011-06-24.mp4 – 22.8 MB
eFukt_21165_The_True_Story_of_Animal_Farm_2014-06-28.mp4 – 65.0 MB
eFukt_21166_When_Fapping_Goes_Wrong_2014-07-01.mp4 – 5.2 MB
eFukt_21167_The_Absurdity_of_Japanese_Pornography_3_2014-07-08.mp4 – 33.7 MB
eFukt_21169_Semen_and_Strife_2014-07-16.mp4 – 6.7 MB
eFukt_21170_The_Ratchet_Compilation_2_2014-07-20.mp4 – 18.1 MB
eFukt_21171_This_Girl_is_Fucked_Up_2014-07-25.mp4 – 20.6 MB
eFukt_21173_Her_First_Squirt_2014-07-30.mp4 – 10.6 MB
eFukt_21174_How_To_Have_Cyber_Sex_2014-07-31.mp4 – 11.5 MB
eFukt_21175_People_are_NOT_Awesome_2014_2014-08-06.mp4 – 25.0 MB
eFukt_21176_Lexi_Belle_Has_A_Breakdown_2014-08-11.mp4 – 11.2 MB
eFukt_21178_The_Dangers_of_Filming_Pornography_2014-08-17.mp4 – 6.8 MB
eFukt_21179_The_Cam_Whore_Meltdown_Comp_2014-08-24.mp4 – 19.3 MB
eFukt_21180_The_Trolling_of_a_Discount_Hooker_2014-09-01.mp4 – 30.5 MB
eFukt_21181_The_Religious_Compilation_2014-09-08.mp4 – 34.7 MB
eFukt_21182_Caught_Fapping_at_the_Library_2014-09-11.mp4 – 16.5 MB
eFukt_21183_SHE_CUT_MY_DICK_OFF_2014-09-18.mp4 – 40.0 MB
eFukt_21184_American_History_XXX_2014-09-23.mp4 – 30.1 MB
eFukt_21186_Thot_Hilariously_Ruins_Cum_Shot_2014-09-27.mp4 – 8.5 MB
eFukt_21187_Porn_Scenes_Worthy_of_an_Oscar_4_2014-10-06.mp4 – 48.1 MB
eFukt_21188_Kicked_In_The_Balls_Of_My_Heart_2014-10-10.mp4 – 9.9 MB
eFukt_21189_The_Emotional_Limits_of_Pornstars_2014-10-18.mp4 – 36.1 MB
eFukt_21191_10_of_the_Most_Intense_Orgasms_Ever_2014-10-28.mp4 – 27.0 MB
eFukt_21192_Newb_Cums_in_10_Seconds_2014-11-03.mp4 – 8.7 MB
eFukt_21194_The_49_Year_Old_Virgin_2014-11-13.mp4 – 26.6 MB
eFukt_21195_Kim_Kardashian_s_Vagina_2014-11-15.mp4 – 1.2 MB
eFukt_21196_The_Obliteration_of_Female_Genitalia_2014-11-17.mp4 – 11.7 MB
eFukt_21197_Suicidal_Butt_Sex_Girl_2014-11-21.mp4 – 16.3 MB
eFukt_21198_Mom_Watches_Daughters_Blowjob_Audition_2014-11-29.mp4 – 30.9 MB
eFukt_21199_The_Bad_Boyfriends_Compilation_2014-12-09.mp4 – 20.3 MB
eFukt_21200_The_Greatest_Girl_In_The_World_2014-12-12.mp4 – 16.2 MB
eFukt_21201_Porn_Newbz_Anal_Fail_2014-12-15.mp4 – 23.9 MB
eFukt_21202_The_Legend_of_Saint_Petersburg_2014-12-18.mp4 – 11.2 MB
eFukt_21203_Jingle_Ballz_2014-12-24.mp4 – 12.4 MB
eFukt_21204_The_Return_of_the_Giggliest_Girl_in_Porn_2014-12-27.mp4 – 8.9 MB
eFukt_21205_18_Year_Old_Manlet_VS_Pornstar_2015-01-02.mp4 – 30.7 MB
eFukt_21206_How_I_Made_Mom_and_Sis_My_Sex_Slaves_2015-01-08.mp4 – 16.2 MB
eFukt_21208_Gimmie_Yo_Numba_2015-01-12.mp4 – 16.8 MB
eFukt_21209_FUCK1NG_DESTROY3D_2015-01-19.mp4 – 30.6 MB
eFukt_21210_Hilarious_Oral_Sex_Fail_2015-01-23.mp4 – 12.6 MB
eFukt_21212_Original_P_2015-01-30.mp4 – 18.5 MB
eFukt_21213_Horribly_Catchy_Musical_Pornography_2015-02-05.mp4 – 19.2 MB
eFukt_21214_Jew_Boy_VS_Swedish_Pornstar_2015-02-10.mp4 – 14.9 MB
eFukt_21215_The_Caught_Compilation_2015-02-14.mp4 – 30.3 MB
eFukt_21216_Pornstars_Read_Hatemail_2015-03-15.mp4 – 20.9 MB
eFukt_21217_Porn_Star_Goes_Ballistic_on_Modern_Feminists_2015-02-15.mp4 – 10.3 MB
eFukt_21218_DID_U_HAZ_FUN_2015-02-23.mp4 – 18.8 MB
eFukt_21219_I_Got_A_Husband_2015-02-28.mp4 – 8.9 MB
eFukt_21220_Shit_White_People_Do_2015-03-03.mp4 – 26.2 MB
eFukt_21221_WUT_IS_THIS._I_DON_T_EVEN…_2015-03-08.mp4 – 9.1 MB
eFukt_21222_Man_Tries_To_Prove_GF_Isn_t_Transsexual_2015-03-16.mp4 – 3.1 MB
eFukt_21223_A_Happy_Breakdown_2015-03-18.mp4 – 19.5 MB
eFukt_21225_Rough_Sex_Accident_2015-03-27.mp4 – 10.3 MB
eFukt_21226_Bargain_Bob_s_One_Minute_In_Heaven_2015-03-31.mp4 – 6.6 MB
eFukt_21227_Autism_Abuse_2015-04-07.mp4 – 50.6 MB
eFukt_21228_Piercing_His_GFs_Clit_THEN_FUCKING_HER_2015-04-11.mp4 – 37.0 MB
eFukt_21230_A_Wife_of_Splooge_2015-04-18.mp4 – 28.6 MB
eFukt_21231_Just_Tha_Tip_2015-04-21.mp4 – 28.1 MB
eFukt_21232_THE_BUKKAKE_HATE_COMPILATION_2015-04-27.mp4 – 35.7 MB
eFukt_21233_The_Sexual_Trolling_of_Bicycle_Guy_2015-05-01.mp4 – 26.2 MB
eFukt_21235_How_To_Fail_in_Porn_x2__2015-05-10.mp4 – 15.0 MB
eFukt_21236_The_Best_of_Public_Fapperz_2015-05-15.mp4 – 48.1 MB
eFukt_21237_Anally_Destroying_a_Mentally_Disturbed_Teenager_2015-05-21.mp4 – 91.9 MB
eFukt_21244_Trolling_Wannabe_Pornstars_2K15_2015-06-01.mp4 – 63.6 MB
eFukt_21245_Man_Gives_Birth_2015-06-03.mp4 – 52.8 MB
eFukt_21264_Thot_Butthole_Rekt_by_Prized_Mandingo_2015-06-08.mp4 – 17.2 MB
eFukt_21268_WTF_How_many_can_she_fit_2015-06-11.mp4 – 11.3 MB
eFukt_21269_Epic_2_Horrible_in_Thirty_Seconds_2015-06-18.mp4 – 23.0 MB
eFukt_21270_Awkward_Moments_in_Porn_4582745_2015-06-23.mp4 – 58.3 MB
eFukt_21271_The_Absurdity_of_Japanese_Pornography_4_2015-06-29.mp4 – 29.6 MB
eFukt_21281_Tits_and_Aspergers_2015-07-02.mp4 – 6.9 MB
eFukt_21285_SHITPOST_2015-07-07.mp4 – 3.3 MB
eFukt_21286_Milk_and_Cereal_2015-07-09.mp4 – 15.4 MB
eFukt_21288_Psycho_Pornstar_Gets_Donkey_Punched_2015-07-17.mp4 – 28.2 MB
eFukt_21295_The_Sexy_Side_of_Waterboarding_2015-07-21.mp4 – 21.5 MB
eFukt_21298_I_Want_HIV_2015-07-27.mp4 – 54.9 MB
eFukt_21300_It_Never_Endz_2015-08-06.mp4 – 10.3 MB
eFukt_21301_Erotic_Jihad_2015-08-12.mp4 – 12.3 MB
eFukt_21303_CUM_HATERZ_ANONYMOUS_2015-08-19.mp4 – 27.2 MB
eFukt_21304_extrme_Foot_Fetish_2015-08-24.mp4 – 17.9 MB
eFukt_21310_Goober_Tries_Not_To_Cum_2015-08-30.mp4 – 5.9 MB
eFukt_21313_Sexual_Fatalities_From_Japanese_Cartoons_2015-09-04.mp4 – 45.5 MB
eFukt_21314_Backstage__Lesbian_Bukkake_2015-09-07.mp4 – 35.3 MB
eFukt_21315_Horse_Fucker_2015-09-10.mp4 – 23.8 MB
eFukt_21316_The_Absurdity_of_Japanese_Pornography_4_2015-09-16.mp4 – 26.3 MB
eFukt_21317_Ratchet_Stripper_Goes_Mental_2015-09-20.mp4 – 8.2 MB
eFukt_21318_Exorcism_via_Anal_2015-09-23.mp4 – 10.2 MB
eFukt_21319_extrme_Lesbian_Handshakes_2015-09-30.mp4 – 18.1 MB
eFukt_21322_Flipper_Boy_2015-10-15.mp4 – 21.4 MB
eFukt_21325_Banned_From_Arby_s_4_Lyfe_2015-10-23.mp4 – 20.8 MB
eFukt_21326_Dad_I_Don_t_Want_To_Fuck_You_2015-10-28.mp4 – 17.8 MB
eFukt_21327_Dildo_Lodged_Inside_Rectum_2015-11-02.mp4 – 9.8 MB
eFukt_21329_I_LOVE_ROUGH_PORN_2015-11-09.mp4 – 30.9 MB
eFukt_21330_The_Yusaf_Mack_Video_2015-11-16.mp4 – 10.9 MB
eFukt_21331_LMAO_Middle_Eastern_Sex_Talk_Fail_2015-11-19.mp4 – 28.8 MB
eFukt_21333_Has_Cam_Modeling_Gone_Too_Far_2015-11-24.mp4 – 16.0 MB
eFukt_21334_Too_Many_Gooks_2015-11-30.mp4 – 50.1 MB
eFukt_21336_Amateur_Fail_of_The_Year_2015-12-09.mp4 – 10.1 MB
eFukt_21337_The_Most_Powerful_Ass_in_Brazil_2015-12-12.mp4 – 16.1 MB
eFukt_21340_Hope_My_Parents_Don_t_See_This_2015-12-18.mp4 – 16.8 MB
eFukt_21341_TED_3_A_Japanese_Porn_Parody_2015-12-23.mp4 – 12.1 MB
eFukt_21343_GIANT_SOUL_EATING_VAGINA_2016-01-04.mp4 – 13.9 MB
eFukt_21345_I_Must_ve_Been_Drugged_2016-01-09.mp4 – 6.7 MB
eFukt_21346_Awkward_Moments_in_Pornography_2K16_2016-01-17.mp4 – 27.4 MB
eFukt_21347_Flashing_Kids_At_The_Mall_Prank_2016-01-21.mp4 – 4.4 MB
eFukt_21348_2_DRUNK_2_FUK_2016-01-26.mp4 – 29.8 MB
eFukt_21351_10_WTF_Momentz_in_Pornography_2016-02-05.mp4 – 37.2 MB
eFukt_21352_Gia_Paloma_s_Infamous_Milk_Enema_Fail_2016-02-10.mp4 – 22.6 MB
eFukt_21353_Cute_Teen_With_Hidden_Talent_2016-02-17.mp4 – 4.2 MB
eFukt_21354_BiG_Bertha_s_Pocket_Rocket_2016-02-23.mp4 – 16.0 MB
eFukt_21355_101_Asian_Stripper_Tricks_2016-02-29.mp4 – 20.6 MB
eFukt_21356_Denny_s_Waiter_Tipped_With_Blowjob_2016-02-29.mp4 – 2.9 MB
eFukt_21357_Accidental_Cum_Shot_2016-03-04.mp4 – 4.8 MB
eFukt_21361_Testicular_Anal_Insertion_2016-03-19.mp4 – 18.0 MB
eFukt_21363_Hungarian_Thot_Gets_Taught_2016-03-27.mp4 – 13.7 MB
eFukt_21367_Cuck_Has_Second_Thoughts_2016-04-09.mp4 – 14.5 MB
eFukt_21368_Furious_Naked_Man_Attacks_Volvo_2016-04-19.mp4 – 2.0 MB
eFukt_21369_French_Mustard_An_Anal_Sex_Fail_2016-04-26.mp4 – 9.4 MB
eFukt_21370_Trolling_Wannabe_Pornstars_2K16_2016-04-30.mp4 – 33.3 MB
eFukt_21371_Homo_Attempts_Straight_Porn_2016-05-10.mp4 – 28.4 MB
eFukt_21372_Pornstar_Repeatedly_Choked_Unconscious_2016-05-16.mp4 – 18.9 MB
eFukt_21373_Interracial_Blowbang_Confessions_2016-05-22.mp4 – 32.7 MB
eFukt_21374_Pornstar_Repeatedly_Choked_Unconscious_2016-05-17.mp4 – 39.1 MB
eFukt_21375_The_19th_Hole_2016-05-26.mp4 – 13.8 MB
eFukt_21376_The_World_s_Smallest_Penis_2016-05-30.mp4 – 10.6 MB
eFukt_21377_The_Caught_Compilation_TWO_2016-06-04.mp4 – 31.7 MB
eFukt_21378_Greatest_Amateur_Sex_Tape_Fuck_Ups_2016-06-10.mp4 – 21.8 MB
eFukt_21379_The_Dumbest_Cunt_In_Porn_2016-06-18.mp4 – 30.1 MB
eFukt_21501_O_MY_FUKING_GAWD_2016-06-26.mp4 – 28.9 MB
eFukt_21566_TELL_ME_ITS_GOOD_DEMON_PUSSIE_2016-07-14.mp4 – 28.2 MB
eFukt_21577_Making_Fun_of_Cutters_LOL_TRIGGERS_2016-07-19.mp4 – 43.0 MB
eFukt_21585_Pornstar_Accidently_Pukes_on_Fellow_Actress_2016-07-24.mp4 – 10.8 MB
eFukt_21595_THE_WORST_BOOB_JOB_IN_PORNO_HISTORY_2016-07-30.mp4 – 3.9 MB
eFukt_21603_The_brutl_Cumpilation_2016-08-04.mp4 – 25.9 MB
eFukt_21618_GIRL_HAS_DELAYED_ORGASM_2016-08-12.mp4 – 12.0 MB
eFukt_21627_Mother_Fucking_T_Rex_2016-08-17.mp4 – 15.6 MB
eFukt_21636_Feminist_Dike_VS_The_Patriarchy_2016-08-23.mp4 – 23.6 MB
eFukt_21645_18_Year_Old_Suffers_O_Ring_Blowout_2016-08-28.mp4 – 15.8 MB
eFukt_21658_The_Biggest_Cuck_on_This_Shitty_Earth_2016-09-05.mp4 – 22.4 MB
eFukt_21671_When_in_Thailand_2016-09-12.mp4 – 11.5 MB
eFukt_21682_Fake_Stripper_High_On_Pharmaceuticals_2016-09-19.mp4 – 21.6 MB
eFukt_21689_The_Single_Greatest_Blowjob_of_ALL_Time_2016-09-23.mp4 – 11.1 MB
eFukt_21701_THE_BEST_OF_UNWANTED_FACIALS_2016-09-30.mp4 – 41.4 MB
eFukt_21716_Awkward_Asian_Fellates_10_Dicks_2016-10-09.mp4 – 14.4 MB
eFukt_21724_Plight_of_the_Cuck_2016-10-13.mp4 – 8.8 MB
eFukt_21737_The_Skank_Tank_2016-10-21.mp4 – 26.8 MB
eFukt_21744_Sexy_Triple_Amputee_Needs_Money_2016-10-25.mp4 – 11.2 MB
eFukt_21752_Crackhead_Hates_Anal_2016-10-30.mp4 – 17.4 MB
eFukt_21760_Shit_Pornstars_Say_2_2016-11-03.mp4 – 25.2 MB
eFukt_21773_She_Quit_Porn_After_This_2016-11-09.mp4 – 31.3 MB
eFukt_21779_Anally_Destroyed_French_Milf_2016-11-13.mp4 – 3.8 MB
eFukt_21785_Racist_Cop_Porn_is_Hilarious_2016-11-17.mp4 – 24.2 MB
eFukt_21795_Wheelchair_Bobby_Inseminates_Goth_Prostitute_2016-11-23.mp4 – 23.8 MB
eFukt_21803_SPERM_GARAGE_2016-11-28.mp4 – 15.6 MB
eFukt_21814_WTF_Moments_In_Pornography_2016-12-05.mp4 – 27.4 MB
eFukt_21823_Spunker_Vogt_2016-12-10.mp4 – 19.2 MB
eFukt_21833_The_Saddest_Blowjob_Ever_2016-12-15.mp4 – 10.6 MB
eFukt_21842_BUT_DADDY_IT_HURTZ_2016-12-21.mp4 – 40.5 MB
eFukt_21855_Trash_The_Rental_2016-12-30.mp4 – 34.7 MB
eFukt_21874_Interracial_Dirty_Talk_Fail_2017-01-10.mp4 – 7.1 MB
eFukt_21881_Chuck_Berry_Farting_On_Hookers_2017-01-15.mp4 – 22.0 MB
eFukt_21888_Life_of_the_Party_2017-01-19.mp4 – 20.3 MB
eFukt_21899_Ratchet_Compilation_2K17_2017-01-26.mp4 – 14.7 MB
eFukt_21920_Increase_Orgasms_While_Committing_Murder_5_Easy_Tips_2017-02-08.mp4 – 17.2 MB
eFukt_21931_Gender_Bending_Torso_Attempts_Coitus_2017-02-14.mp4 – 10.6 MB
eFukt_21939_Porno_Trainwreck_of_The_Year_2017-02-19.mp4 – 21.5 MB
eFukt_21958_OK_SO_WHOSE_NEXT_2017-03-05.mp4 – 15.7 MB
eFukt_21961_Random_Guys_Try_to_Fuck_a_Pornstar_2017-03-10.mp4 – 63.0 MB
eFukt_21967_Sexually_Traumatising_a_Teenage_Stripper_2017-03-16.mp4 – 34.4 MB
eFukt_21973_Wannabe_Swinger_Gets_Cucked_Instead_2017-03-22.mp4 – 21.8 MB
eFukt_21978_Awkward_Moments_In_Cam_Whoring_2017-03-27.mp4 – 20.3 MB
eFukt_21986_Wallflower_Fucks_Up_Orgy_2017-04-04.mp4 – 23.6 MB
eFukt_21992_The_Accidental_Anal_Compilation_2017-04-09.mp4 – 27.6 MB
eFukt_22003_Racist_Pornstar_Won_t_Stop_Saying_N_Word_2017-04-17.mp4 – 23.5 MB
eFukt_22010_BUT_I_M_A_VIRGIN_2017-04-24.mp4 – 53.6 MB
eFukt_22016_Cam_Whore_Left_Speechless_2017-04-29.mp4 – 5.0 MB
eFukt_22023_First_Time_Anal_Ends_In_Tears_2017-05-06.mp4 – 18.6 MB
eFukt_22028_Most_Ridiculous_Orgasms_Fucking_Ever_2017-05-10.mp4 – 31.9 MB
eFukt_22034_Awkward_Girl_Sucks_at_Porn_2017-05-17.mp4 – 27.2 MB
eFukt_22041_Cringiest_Porn_Scenes_Ever_Attempted_2017-05-23.mp4 – 36.3 MB
eFukt_22046_Madam_Chang_s_Jack_Shack_Torture_2017-05-29.mp4 – 9.2 MB
eFukt_22053_The_Prestige_Of_Sexual_Intercourse_2017-06-03.mp4 – 18.6 MB
eFukt_22077_Awkward_Momentz_in_Porn_2k17_2017-06-21.mp4 – 37.9 MB
eFukt_22084_How_to_Make_an_Asian_Pornstar_Cry_2017-06-28.mp4 – 27.7 MB
eFukt_22090_The_Cam_Whore_Meltdown_Comp_2017-07-04.mp4 – 20.0 MB
eFukt_22097_Cringy_Pornstar_Birthday_2017-07-10.mp4 – 35.2 MB
eFukt_22103_Cocaine_Makes_Grandpa_Horny_2017-07-17.mp4 – 20.5 MB
eFukt_22109_The_Caught_Compilation_2K17_EDITION_2017-07-22.mp4 – 35.0 MB
eFukt_22124_Japanese_Porn_Is_Fucking_Crazy_2017-08-05.mp4 – 58.9 MB
eFukt_22132_Girlfriend_Of_The_Year_2017-08-13.mp4 – 26.9 MB
eFukt_22143_PANIC_AT_THE_BLOWBANG_2017-08-24.mp4 – 19.1 MB
eFukt_22148_Babysitter_Betrays_Trust_of_Horny_Dad_2017-08-28.mp4 – 5.6 MB
eFukt_22154_Drugs_and_Porn_Don_t_Mix_2017-09-02.mp4 – 27.0 MB
eFukt_22162_The_Legend_of_Fuckmeat_2017-09-10.mp4 – 46.7 MB
eFukt_22171_POWER_OF_CAWK_2017-09-18.mp4 – 49.5 MB
eFukt_22178_The_Cum_Hating_Pornstar_2017-09-24.mp4 – 9.9 MB
eFukt_22182_HOW_TO_AVERT_A_DEEP_THROAT_DISASTER_2017-09-28.mp4 – 19.3 MB
eFukt_22190_The_Bukkake_Hate_Comp_2017-10-05.mp4 – 30.9 MB
eFukt_22197_The_Impotent_Wanna_Be_Pornstar_2017-10-11.mp4 – 32.5 MB
eFukt_22206_Aspiring_Porn_Slut_Ruins_Set_2017-10-20.mp4 – 12.8 MB
eFukt_22210_Embarrassing_Moments_In_Cam_Whoring_2017-10-25.mp4 – 24.6 MB
eFukt_22218_Lobster_raps_Girl_2017-11-02.mp4 – 14.3 MB
eFukt_22226_Bad_Boyfriends_Two_2017-11-08.mp4 – 18.4 MB
eFukt_22233_Assimilating_Dicks_With_A_Speech_Impediment_2017-11-13.mp4 – 12.4 MB
eFukt_22239_Daughter_Tricked_Into_Fisting_Mom_2017-11-17.mp4 – 24.9 MB
eFukt_22243_READY_AIM_FIRE_2017-11-22.mp4 – 9.0 MB
eFukt_22248_Inflatable_Butt_Plug_Fail_2017-11-27.mp4 – 12.0 MB
eFukt_22257_Cant_Stop_the_Pollock_2017-12-06.mp4 – 41.2 MB
eFukt_22264_The_Rarest_Fetish_of_All_2017-12-12.mp4 – 56.2 MB
eFukt_22269_Donnies_Feed_and_Seed_2017-12-18.mp4 – 11.1 MB
eFukt_22272_Happy_XMAS_From_eFukt_2017-12-23.mp4 – 40.0 MB
eFukt_22283_biggest_whore_on_youtube_2018-01-01.mp4 – 33.7 MB
eFukt_22290_Most_Vile_Girl_On_The_Internet_2018-01-06.mp4 – 15.8 MB
eFukt_22296_I_Am_Very_Intelligent_2018-01-12.mp4 – 25.1 MB
eFukt_22309_Wrong_Hole_Like_A_Boss_2018-01-24.mp4 – 5.5 MB
eFukt_22314_Japans_Got_Talent_2018-01-30.mp4 – 14.6 MB
eFukt_22321_19_Years_Old_And_Ruined_2018-02-05.mp4 – 29.5 MB
eFukt_22329_The_Cam_Whore_Awards_2018_Edition_2018-02-10.mp4 – 22.5 MB
eFukt_22333_Nazi_Cuck_Porn_2018-02-15.mp4 – 23.5 MB
eFukt_22338_THAT_S_GOTTA_FUCKING_HURT_2018-02-20.mp4 – 19.9 MB
eFukt_22351_Midget_Bullied_Into_Impotence_2018-03-04.mp4 – 8.8 MB
eFukt_22356_DADDY_FUCKS_ME_TO_SAVE_MOMMY_2018-03-08.mp4 – 27.9 MB
eFukt_22362_The_Pump_Master_2018-03-13.mp4 – 21.9 MB
eFukt_22369_WTF_Moments_In_Pornography_2018-03-20.mp4 – 24.2 MB
eFukt_22378_Most_Retarded_Porn_Plots_In_History_2018-03-28.mp4 – 39.8 MB
eFukt_Feeding_Semen_To_Unsuspecting_Coworkers_2016.mp4 – 26.6 MB
eFukt_Hygiene_Fail_2010-2011.mp4 – 2.8 MB

 

Mega-Rip it’s free porn site, which updated daily. Here you can find and fast download 0day sex videos in high quality, full porn site rips and XXX Movies.
eFukt.com – SITERIP Porn Videos, eFukt.com – SITERIP Free Porn Movies, eFukt.com – SITERIP Free Porn Download, eFukt.com – SITERIP Free sex videos, eFukt.com – SITERIP Movies, eFukt.com Torrent Download, eFukt.com Kostenlose Pornos, Free sex clips, Download for free on HitFile, DepFile, Uploaded, Rapidgator, Keep2Share, share-online, ul.to. Watch online here PornHub, Xvideos, YouPorn, eFukt.com – SITERIP Teen Hardcore Porn, eFukt.com – SITERIP Porn Tube, eFukt.com – SITERIP HD Sex Videos, eFukt.com – SITERIP Mobile Porn, eFukt HitFile Free Porn. Download Fail moments in PORN in HD, Watch online Fail moments in PORN free porn, Watch amateur Teen in HD, Fun moments in PORN Videos Free and Fast download, Adult humor for adults, Makers of Lulz. Shocking Humor, Porn bloopers, Porn Fails, Cam Whores, Amateur Porn.
eFukt New Scenes, Watch online eFukt porn, eFukt new porn videos, HD eFukt Porn for free, eFukt Free Porn, eFukt Kostenlose Pornos.